Wetterdaten: Montag, 11.03.2019
Datum Zeit Temp. Aussen Temp. o. S. +5cm Feuchte Auss Luftdruck Regen Sonnenschein Regendauer Solar Windben Empfang
11.03.2019 00:00 3,9 C 3,3 C 2,2 C 92 % 1011,8 hPa 0,0 l/m 0 min 2 min 0 W/m 32,2 km/h (5 Bft) 97,83 %
11.03.2019 00:02 3,9 C 3,3 C 2,2 C 92 % 1011,7 hPa 0,0 l/m 0 min 2 min 0 W/m 9,7 km/h (2 Bft) 97,50 %
11.03.2019 00:04 3,9 C 2,8 C 2,2 C 92 % 1011,8 hPa 0,0 l/m 0 min 2 min 0 W/m 22,5 km/h (4 Bft) 97,87 %
11.03.2019 00:08 4,0 C 2,8 C 2,2 C 91 % 1011,8 hPa 0,0 l/m 0 min 4 min 0 W/m 19,3 km/h (3 Bft) 98,94 %
11.03.2019 00:10 4,0 C 2,8 C 2,2 C 91 % 1011,8 hPa 0,0 l/m 0 min 2 min 0 W/m 9,7 km/h (2 Bft) 100,00 %
11.03.2019 00:12 4,1 C 2,8 C 2,2 C 91 % 1011,7 hPa 0,0 l/m 0 min 0 min 0 W/m 9,7 km/h (2 Bft) 97,87 %
11.03.2019 00:14 4,1 C 3,3 C 2,2 C 90 % 1011,6 hPa 0,0 l/m 0 min 0 min 0 W/m 9,7 km/h (2 Bft) 100,00 %
11.03.2019 00:16 4,1 C 3,3 C 2,2 C 90 % 1011,7 hPa 0,0 l/m 0 min 0 min 0 W/m 9,7 km/h (2 Bft) 100,00 %
11.03.2019 00:18 4,1 C 2,8 C 2,2 C 90 % 1011,6 hPa 0,0 l/m 0 min 0 min 0 W/m 6,4 km/h (2 Bft) 100,00 %
11.03.2019 00:20 4,1 C 3,3 C 2,2 C 90 % 1011,7 hPa 0,0 l/m 0 min 0 min 0 W/m 6,4 km/h (2 Bft) 100,00 %
11.03.2019 00:22 4,1 C 3,3 C 2,2 C 90 % 1011,6 hPa 0,0 l/m 0 min 0 min 0 W/m 3,2 km/h (1 Bft) 100,00 %
11.03.2019 00:24 4,1 C 3,3 C 2,2 C 90 % 1011,6 hPa 0,0 l/m 0 min 0 min 0 W/m 6,4 km/h (2 Bft) 100,00 %
11.03.2019 00:26 4,1 C 3,3 C 2,2 C 90 % 1011,7 hPa 0,0 l/m 0 min 0 min 0 W/m 3,2 km/h (1 Bft) 100,00 %
11.03.2019 00:28 4,1 C 3,3 C 2,2 C 89 % 1011,7 hPa 0,0 l/m 0 min 0 min 0 W/m 6,4 km/h (2 Bft) 100,00 %
11.03.2019 00:30 4,1 C 3,3 C 2,2 C 89 % 1011,6 hPa 0,0 l/m 0 min 0 min 0 W/m 6,4 km/h (2 Bft) 100,00 %
11.03.2019 00:32 4,1 C 3,3 C 2,2 C 89 % 1011,6 hPa 0,0 l/m 0 min 0 min 0 W/m 6,4 km/h (2 Bft) 100,00 %
11.03.2019 00:34 4,1 C 3,3 C 2,2 C 89 % 1011,5 hPa 0,0 l/m 0 min 0 min 0 W/m 9,7 km/h (2 Bft) 100,00 %
11.03.2019 00:36 4,1 C 3,3 C 2,2 C 89 % 1011,5 hPa 0,0 l/m 0 min 0 min 0 W/m 12,9 km/h (3 Bft) 100,00 %
11.03.2019 00:38 4,1 C 3,3 C 2,8 C 89 % 1011,5 hPa 0,0 l/m 0 min 0 min 0 W/m 9,7 km/h (2 Bft) 100,00 %
11.03.2019 00:40 4,1 C 3,3 C 2,8 C 89 % 1011,4 hPa 0,0 l/m 0 min 0 min 0 W/m 16,1 km/h (3 Bft) 100,00 %
11.03.2019 00:42 4,1 C 3,3 C 2,8 C 89 % 1011,2 hPa 0,0 l/m 0 min 0 min 0 W/m 9,7 km/h (2 Bft) 100,00 %
11.03.2019 00:44 4,1 C 3,3 C 2,8 C 89 % 1011,2 hPa 0,0 l/m 0 min 0 min 0 W/m 12,9 km/h (3 Bft) 100,00 %
11.03.2019 00:46 4,2 C 3,3 C 2,8 C 89 % 1011,1 hPa 0,0 l/m 0 min 0 min 0 W/m 12,9 km/h (3 Bft) 100,00 %
11.03.2019 00:48 4,2 C 3,3 C 2,8 C 88 % 1011,2 hPa 0,0 l/m 0 min 0 min 0 W/m 16,1 km/h (3 Bft) 100,00 %
11.03.2019 00:50 4,2 C 3,3 C 2,8 C 88 % 1011,1 hPa 0,0 l/m 0 min 0 min 0 W/m 16,1 km/h (3 Bft) 100,00 %
11.03.2019 00:52 4,2 C 3,3 C 2,8 C 88 % 1011,1 hPa 0,0 l/m 0 min 0 min 0 W/m 19,3 km/h (3 Bft) 100,00 %
11.03.2019 00:54 4,2 C 3,3 C 2,8 C 88 % 1010,9 hPa 0,0 l/m 0 min 0 min 0 W/m 25,7 km/h (4 Bft) 100,00 %
11.03.2019 00:56 4,2 C 3,3 C 2,8 C 88 % 1011,0 hPa 0,0 l/m 0 min 0 min 0 W/m 9,7 km/h (2 Bft) 100,00 %
11.03.2019 00:58 4,2 C 3,3 C 2,8 C 87 % 1011,0 hPa 0,0 l/m 0 min 0 min 0 W/m 16,1 km/h (3 Bft) 100,00 %
11.03.2019 01:00 4,2 C 3,3 C 2,8 C 87 % 1011,0 hPa 0,0 l/m 0 min 0 min 0 W/m 12,9 km/h (3 Bft) 97,87 %
11.03.2019 01:02 4,2 C 3,9 C 2,8 C 87 % 1011,1 hPa 0,0 l/m 0 min 0 min 0 W/m 16,1 km/h (3 Bft) 100,00 %
11.03.2019 01:04 4,3 C 3,9 C 2,8 C 87 % 1011,0 hPa 0,0 l/m 0 min 0 min 0 W/m 16,1 km/h (3 Bft) 100,00 %
11.03.2019 01:06 4,3 C 3,9 C 2,8 C 87 % 1010,9 hPa 0,0 l/m 0 min 0 min 0 W/m 9,7 km/h (2 Bft) 100,00 %
11.03.2019 01:08 4,3 C 3,9 C 2,8 C 87 % 1011,0 hPa 0,0 l/m 0 min 0 min 0 W/m 22,5 km/h (4 Bft) 100,00 %
11.03.2019 01:10 4,3 C 3,9 C 2,8 C 86 % 1010,9 hPa 0,0 l/m 0 min 0 min 0 W/m 16,1 km/h (3 Bft) 100,00 %
11.03.2019 01:12 4,3 C 3,9 C 2,8 C 86 % 1010,9 hPa 0,0 l/m 0 min 0 min 0 W/m 12,9 km/h (3 Bft) 100,00 %
11.03.2019 01:14 4,3 C 3,9 C 2,8 C 86 % 1010,9 hPa 0,0 l/m 0 min 0 min 0 W/m 22,5 km/h (4 Bft) 100,00 %
11.03.2019 01:16 4,3 C 3,9 C 2,8 C 86 % 1010,9 hPa 0,0 l/m 0 min 0 min 0 W/m 9,7 km/h (2 Bft) 97,87 %
11.03.2019 01:18 4,3 C 3,9 C 2,8 C 86 % 1010,8 hPa 0,0 l/m 0 min 0 min 0 W/m 16,1 km/h (3 Bft) 97,87 %
11.03.2019 01:20 4,4 C 3,9 C 2,8 C 85 % 1010,9 hPa 0,0 l/m 0 min 0 min 0 W/m 32,2 km/h (5 Bft) 97,83 %
11.03.2019 01:22 4,4 C 3,9 C 2,8 C 85 % 1011,1 hPa 0,0 l/m 0 min 0 min 0 W/m 22,5 km/h (4 Bft) 97,87 %
11.03.2019 01:24 4,4 C 3,9 C 2,8 C 85 % 1011,0 hPa 0,0 l/m 0 min 0 min 0 W/m 22,5 km/h (4 Bft) 95,74 %
11.03.2019 01:26 4,4 C 3,9 C 2,8 C 85 % 1011,0 hPa 0,0 l/m 0 min 0 min 0 W/m 22,5 km/h (4 Bft) 97,87 %
11.03.2019 01:28 4,4 C 3,9 C 2,8 C 85 % 1011,1 hPa 0,0 l/m 0 min 0 min 0 W/m 22,5 km/h (4 Bft) 97,87 %
11.03.2019 01:30 4,4 C 3,9 C 2,2 C 84 % 1011,0 hPa 0,0 l/m 0 min 0 min 0 W/m 48,3 km/h (6 Bft) 95,74 %
11.03.2019 01:32 4,4 C 3,9 C 2,2 C 84 % 1011,1 hPa 0,0 l/m 0 min 0 min 0 W/m 25,7 km/h (4 Bft) 93,48 %
11.03.2019 01:34 4,4 C 3,9 C 2,2 C 85 % 1011,1 hPa 0,0 l/m 0 min 0 min 0 W/m 22,5 km/h (4 Bft) 95,74 %
11.03.2019 01:36 4,4 C 3,9 C 2,2 C 85 % 1011,1 hPa 0,0 l/m 0 min 0 min 0 W/m 22,5 km/h (4 Bft) 95,74 %
11.03.2019 01:38 4,4 C 3,9 C 2,2 C 85 % 1011,2 hPa 0,0 l/m 0 min 0 min 0 W/m 19,3 km/h (3 Bft) 97,87 %
11.03.2019 01:40 4,4 C 3,3 C 2,2 C 85 % 1011,2 hPa 0,0 l/m 0 min 0 min 0 W/m 22,5 km/h (4 Bft) 97,87 %
11.03.2019 01:42 4,3 C 3,3 C 2,2 C 85 % 1011,3 hPa 0,0 l/m 0 min 0 min 0 W/m 12,9 km/h (3 Bft) 95,74 %
11.03.2019 01:44 4,3 C 3,3 C 2,2 C 86 % 1011,3 hPa 0,0 l/m 0 min 0 min 0 W/m 19,3 km/h (3 Bft) 95,65 %
11.03.2019 01:46 4,2 C 3,3 C 2,2 C 86 % 1011,4 hPa 0,0 l/m 0 min 0 min 0 W/m 22,5 km/h (4 Bft) 97,87 %
11.03.2019 01:48 4,2 C 3,3 C 2,2 C 86 % 1011,4 hPa 0,0 l/m 0 min 0 min 0 W/m 25,7 km/h (4 Bft) 95,74 %
11.03.2019 01:50 4,2 C 3,3 C 2,2 C 86 % 1011,5 hPa 0,0 l/m 0 min 0 min 0 W/m 32,2 km/h (5 Bft) 93,62 %
11.03.2019 01:52 4,1 C 3,3 C 2,2 C 87 % 1011,4 hPa 0,0 l/m 0 min 0 min 0 W/m 16,1 km/h (3 Bft) 95,74 %
11.03.2019 01:54 4,1 C 3,3 C 2,2 C 87 % 1011,4 hPa 0,0 l/m 0 min 0 min 0 W/m 25,7 km/h (4 Bft) 95,74 %
11.03.2019 01:56 4,1 C 3,3 C 2,2 C 87 % 1011,3 hPa 0,0 l/m 0 min 0 min 0 W/m 19,3 km/h (3 Bft) 93,48 %
11.03.2019 01:58 4,0 C 3,3 C 2,2 C 87 % 1011,3 hPa 0,0 l/m 0 min 0 min 0 W/m 16,1 km/h (3 Bft) 95,74 %
11.03.2019 02:00 3,9 C 2,8 C 2,2 C 87 % 1011,4 hPa 0,0 l/m 0 min 0 min 0 W/m 16,1 km/h (3 Bft) 95,74 %
11.03.2019 02:02 3,9 C 2,8 C 2,2 C 88 % 1011,3 hPa 0,0 l/m 0 min 0 min 0 W/m 22,5 km/h (4 Bft) 93,62 %
11.03.2019 02:04 3,9 C 2,8 C 2,2 C 88 % 1011,4 hPa 0,0 l/m 0 min 0 min 0 W/m 22,5 km/h (4 Bft) 97,87 %
11.03.2019 02:06 3,8 C 2,8 C 2,2 C 88 % 1011,4 hPa 0,0 l/m 0 min 0 min 0 W/m 19,3 km/h (3 Bft) 97,87 %
11.03.2019 02:08 3,8 C 2,8 C 1,7 C 88 % 1011,4 hPa 0,0 l/m 0 min 0 min 0 W/m 19,3 km/h (3 Bft) 97,83 %
11.03.2019 02:10 3,7 C 2,8 C 1,7 C 88 % 1011,4 hPa 0,0 l/m 0 min 0 min 0 W/m 25,7 km/h (4 Bft) 91,49 %
11.03.2019 02:12 3,7 C 2,8 C 1,7 C 88 % 1011,5 hPa 0,0 l/m 0 min 0 min 0 W/m 19,3 km/h (3 Bft) 95,74 %
11.03.2019 02:14 3,7 C 2,8 C 1,7 C 88 % 1011,4 hPa 0,0 l/m 0 min 0 min 0 W/m 19,3 km/h (3 Bft) 95,74 %
11.03.2019 02:16 3,6 C 2,8 C 1,7 C 88 % 1011,6 hPa 0,0 l/m 0 min 0 min 0 W/m 29,0 km/h (5 Bft) 95,74 %
11.03.2019 02:18 3,6 C 2,8 C 2,2 C 88 % 1011,6 hPa 0,0 l/m 0 min 0 min 0 W/m 19,3 km/h (3 Bft) 95,65 %
11.03.2019 02:20 3,6 C 2,8 C 2,2 C 89 % 1011,5 hPa 0,0 l/m 0 min 0 min 0 W/m 16,1 km/h (3 Bft) 93,62 %
11.03.2019 02:22 3,6 C 2,8 C 2,2 C 89 % 1011,5 hPa 0,0 l/m 0 min 0 min 0 W/m 22,5 km/h (4 Bft) 95,74 %
11.03.2019 02:24 3,6 C 2,8 C 1,7 C 89 % 1011,5 hPa 0,0 l/m 0 min 0 min 0 W/m 16,1 km/h (3 Bft) 93,62 %
11.03.2019 02:26 3,6 C 2,8 C 2,2 C 89 % 1011,4 hPa 0,0 l/m 0 min 0 min 0 W/m 12,9 km/h (3 Bft) 97,87 %
11.03.2019 02:28 3,5 C 2,8 C 1,7 C 89 % 1011,3 hPa 0,0 l/m 0 min 0 min 0 W/m 12,9 km/h (3 Bft) 95,74 %
11.03.2019 02:30 3,5 C 2,8 C 1,7 C 89 % 1011,3 hPa 0,0 l/m 0 min 0 min 0 W/m 19,3 km/h (3 Bft) 97,87 %
11.03.2019 02:32 3,5 C 2,8 C 1,7 C 89 % 1011,3 hPa 0,0 l/m 0 min 0 min 0 W/m 25,7 km/h (4 Bft) 95,74 %
11.03.2019 02:34 3,4 C 2,8 C 1,7 C 89 % 1011,3 hPa 0,0 l/m 0 min 0 min 0 W/m 9,7 km/h (2 Bft) 97,87 %
11.03.2019 02:36 3,4 C 2,8 C 1,7 C 89 % 1011,3 hPa 0,0 l/m 0 min 0 min 0 W/m 19,3 km/h (3 Bft) 97,87 %
11.03.2019 02:38 3,4 C 2,8 C 1,7 C 89 % 1011,2 hPa 0,0 l/m 0 min 0 min 0 W/m 9,7 km/h (2 Bft) 97,87 %
11.03.2019 02:40 3,4 C 2,8 C 1,7 C 89 % 1011,2 hPa 0,0 l/m 0 min 0 min 0 W/m 16,1 km/h (3 Bft) 97,87 %
11.03.2019 02:42 3,4 C 2,8 C 2,2 C 89 % 1011,3 hPa 0,0 l/m 0 min 0 min 0 W/m 16,1 km/h (3 Bft) 97,83 %
11.03.2019 02:44 3,4 C 2,8 C 2,2 C 90 % 1011,2 hPa 0,0 l/m 0 min 0 min 0 W/m 9,7 km/h (2 Bft) 97,87 %
11.03.2019 02:46 3,4 C 2,8 C 2,2 C 90 % 1011,2 hPa 0,0 l/m 0 min 0 min 0 W/m 16,1 km/h (3 Bft) 97,87 %
11.03.2019 02:48 3,4 C 2,8 C 2,2 C 90 % 1011,3 hPa 0,0 l/m 0 min 0 min 0 W/m 16,1 km/h (3 Bft) 97,87 %
11.03.2019 02:50 3,4 C 2,8 C 2,2 C 90 % 1011,3 hPa 0,0 l/m 0 min 0 min 0 W/m 19,3 km/h (3 Bft) 95,74 %
11.03.2019 02:52 3,4 C 2,8 C 2,2 C 90 % 1011,3 hPa 0,0 l/m 0 min 0 min 0 W/m 25,7 km/h (4 Bft) 97,87 %
11.03.2019 02:54 3,4 C 2,8 C 2,2 C 90 % 1011,3 hPa 0,0 l/m 0 min 0 min 0 W/m 22,5 km/h (4 Bft) 97,83 %
11.03.2019 02:56 3,4 C 2,8 C 2,2 C 90 % 1011,2 hPa 0,0 l/m 0 min 0 min 0 W/m 16,1 km/h (3 Bft) 97,87 %
11.03.2019 02:58 3,4 C 2,8 C 2,2 C 90 % 1011,3 hPa 0,0 l/m 0 min 0 min 0 W/m 9,7 km/h (2 Bft) 97,87 %
11.03.2019 03:00 3,4 C 2,8 C 2,2 C 90 % 1011,2 hPa 0,0 l/m 0 min 0 min 0 W/m 12,9 km/h (3 Bft) 97,87 %
11.03.2019 03:02 3,3 C 2,8 C 2,2 C 90 % 1011,1 hPa 0,0 l/m 0 min 0 min 0 W/m 25,7 km/h (4 Bft) 95,74 %
11.03.2019 03:04 3,3 C 2,8 C 2,2 C 90 % 1011,1 hPa 0,0 l/m 0 min 0 min 0 W/m 19,3 km/h (3 Bft) 97,87 %
11.03.2019 03:06 3,4 C 2,8 C 2,2 C 90 % 1011,1 hPa 0,0 l/m 0 min 0 min 0 W/m 16,1 km/h (3 Bft) 97,83 %
11.03.2019 03:08 3,4 C 2,8 C 2,2 C 89 % 1011,1 hPa 0,0 l/m 0 min 0 min 0 W/m 12,9 km/h (3 Bft) 97,87 %
11.03.2019 03:10 3,4 C 2,8 C 2,2 C 89 % 1011,1 hPa 0,0 l/m 0 min 0 min 0 W/m 16,1 km/h (3 Bft) 97,87 %
11.03.2019 03:12 3,4 C 2,8 C 2,2 C 89 % 1011,0 hPa 0,0 l/m 0 min 0 min 0 W/m 16,1 km/h (3 Bft) 97,87 %
11.03.2019 03:14 3,4 C 2,8 C 2,2 C 89 % 1011,2 hPa 0,0 l/m 0 min 0 min 0 W/m 29,0 km/h (5 Bft) 97,87 %
11.03.2019 03:16 3,4 C 2,8 C 2,2 C 89 % 1011,2 hPa 0,0 l/m 0 min 0 min 0 W/m 16,1 km/h (3 Bft) 97,83 %
11.03.2019 03:18 3,4 C 2,8 C 2,2 C 89 % 1011,1 hPa 0,0 l/m 0 min 0 min 0 W/m 32,2 km/h (5 Bft) 97,87 %
11.03.2019 03:20 3,4 C 2,8 C 2,2 C 89 % 1011,1 hPa 0,0 l/m 0 min 0 min 0 W/m 22,5 km/h (4 Bft) 97,87 %
11.03.2019 03:22 3,4 C 2,8 C 2,2 C 89 % 1011,1 hPa 0,0 l/m 0 min 0 min 0 W/m 29,0 km/h (5 Bft) 100,00 %
11.03.2019 03:24 3,4 C 2,8 C 2,2 C 89 % 1011,1 hPa 0,0 l/m 0 min 0 min 0 W/m 25,7 km/h (4 Bft) 97,87 %
11.03.2019 03:26 3,4 C 2,8 C 2,2 C 89 % 1011,2 hPa 0,0 l/m 0 min 2 min 0 W/m 25,7 km/h (4 Bft) 97,87 %
11.03.2019 03:28 3,4 C 2,8 C 2,2 C 89 % 1011,2 hPa 0,0 l/m 0 min 2 min 0 W/m 19,3 km/h (3 Bft) 100,00 %
11.03.2019 03:30 3,4 C 2,2 C 1,7 C 90 % 1011,1 hPa 0,0 l/m 0 min 2 min 0 W/m 29,0 km/h (5 Bft) 100,00 %
11.03.2019 03:32 3,4 C 2,2 C 1,7 C 90 % 1011,1 hPa 0,0 l/m 0 min 2 min 0 W/m 19,3 km/h (3 Bft) 100,00 %
11.03.2019 03:34 3,4 C 2,2 C 1,7 C 90 % 1011,1 hPa 0,0 l/m 0 min 2 min 0 W/m 38,6 km/h (5 Bft) 97,87 %
11.03.2019 03:36 3,3 C 2,2 C 1,7 C 90 % 1011,1 hPa 0,0 l/m 0 min 2 min 0 W/m 16,1 km/h (3 Bft) 100,00 %
11.03.2019 03:38 3,3 C 2,2 C 1,7 C 90 % 1011,1 hPa 0,0 l/m 0 min 2 min 0 W/m 12,9 km/h (3 Bft) 100,00 %
11.03.2019 03:40 3,3 C 2,2 C 1,7 C 90 % 1011,1 hPa 0,0 l/m 0 min 2 min 0 W/m 25,7 km/h (4 Bft) 100,00 %
11.03.2019 03:42 3,3 C 2,2 C 1,7 C 90 % 1011,1 hPa 0,0 l/m 0 min 2 min 0 W/m 12,9 km/h (3 Bft) 97,87 %
11.03.2019 03:44 3,2 C 2,2 C 1,7 C 90 % 1011,1 hPa 0,0 l/m 0 min 2 min 0 W/m 16,1 km/h (3 Bft) 100,00 %
11.03.2019 03:46 3,2 C 2,2 C 1,7 C 90 % 1011,1 hPa 0,0 l/m 0 min 2 min 0 W/m 19,3 km/h (3 Bft) 100,00 %
11.03.2019 03:48 3,2 C 2,2 C 1,7 C 90 % 1011,2 hPa 0,0 l/m 0 min 2 min 0 W/m 12,9 km/h (3 Bft) 100,00 %
11.03.2019 03:50 3,2 C 2,2 C 1,7 C 90 % 1011,2 hPa 0,0 l/m 0 min 2 min 0 W/m 12,9 km/h (3 Bft) 100,00 %
11.03.2019 03:52 3,2 C 2,2 C 1,7 C 90 % 1011,1 hPa 0,0 l/m 0 min 2 min 0 W/m 19,3 km/h (3 Bft) 100,00 %
11.03.2019 03:54 3,1 C 2,2 C 1,7 C 90 % 1011,1 hPa 0,0 l/m 0 min 2 min 0 W/m 19,3 km/h (3 Bft) 100,00 %
11.03.2019 03:56 3,1 C 2,2 C 1,7 C 90 % 1011,0 hPa 0,0 l/m 0 min 2 min 0 W/m 12,9 km/h (3 Bft) 100,00 %
11.03.2019 03:58 3,1 C 2,2 C 1,7 C 90 % 1011,0 hPa 0,0 l/m 0 min 2 min 0 W/m 19,3 km/h (3 Bft) 100,00 %
11.03.2019 04:00 3,1 C 2,2 C 1,7 C 90 % 1011,0 hPa 0,0 l/m 0 min 0 min 0 W/m 9,7 km/h (2 Bft) 97,87 %
11.03.2019 04:02 3,1 C 2,2 C 1,7 C 90 % 1011,1 hPa 0,0 l/m 0 min 0 min 0 W/m 9,7 km/h (2 Bft) 100,00 %
11.03.2019 04:04 3,0 C 2,2 C 1,7 C 90 % 1011,0 hPa 0,0 l/m 0 min 0 min 0 W/m 16,1 km/h (3 Bft) 95,65 %
11.03.2019 04:06 3,0 C 2,2 C 1,7 C 90 % 1011,2 hPa 0,0 l/m 0 min 0 min 0 W/m 12,9 km/h (3 Bft) 95,74 %
11.03.2019 04:08 3,0 C 2,2 C 1,7 C 90 % 1011,0 hPa 0,0 l/m 0 min 2 min 0 W/m 9,7 km/h (2 Bft) 91,49 %
11.03.2019 04:10 3,0 C 2,2 C 1,7 C 90 % 1011,0 hPa 0,0 l/m 0 min 0 min 0 W/m 19,3 km/h (3 Bft) 95,74 %
11.03.2019 04:12 3,0 C 2,2 C 1,7 C 90 % 1011,0 hPa 0,0 l/m 0 min 2 min 0 W/m 16,1 km/h (3 Bft) 95,74 %
11.03.2019 04:14 3,0 C 2,8 C 1,7 C 90 % 1011,0 hPa 0,0 l/m 0 min 0 min 0 W/m 12,9 km/h (3 Bft) 95,74 %
11.03.2019 04:16 3,0 C 2,8 C 1,7 C 90 % 1011,0 hPa 0,0 l/m 0 min 0 min 0 W/m 16,1 km/h (3 Bft) 95,65 %
11.03.2019 04:18 3,1 C 2,8 C 2,2 C 90 % 1011,0 hPa 0,0 l/m 0 min 0 min 0 W/m 12,9 km/h (3 Bft) 95,74 %
11.03.2019 04:20 3,1 C 2,8 C 2,2 C 90 % 1010,9 hPa 0,0 l/m 0 min 0 min 0 W/m 12,9 km/h (3 Bft) 93,62 %
11.03.2019 04:22 3,1 C 2,8 C 2,2 C 90 % 1011,0 hPa 0,0 l/m 0 min 2 min 0 W/m 16,1 km/h (3 Bft) 95,74 %
11.03.2019 04:24 3,1 C 2,8 C 2,2 C 90 % 1010,9 hPa 0,0 l/m 0 min 2 min 0 W/m 16,1 km/h (3 Bft) 93,62 %
11.03.2019 04:26 3,1 C 2,8 C 2,2 C 90 % 1010,9 hPa 0,0 l/m 0 min 0 min 0 W/m 9,7 km/h (2 Bft) 91,49 %
11.03.2019 04:28 3,1 C 2,8 C 2,2 C 90 % 1010,9 hPa 0,0 l/m 0 min 0 min 0 W/m 16,1 km/h (3 Bft) 95,65 %
11.03.2019 04:30 3,1 C 2,8 C 2,2 C 90 % 1010,8 hPa 0,0 l/m 0 min 0 min 0 W/m 12,9 km/h (3 Bft) 95,74 %
11.03.2019 04:32 3,1 C 2,8 C 2,2 C 90 % 1010,8 hPa 0,0 l/m 0 min 2 min 0 W/m 16,1 km/h (3 Bft) 95,74 %
11.03.2019 04:34 3,2 C 2,8 C 2,2 C 90 % 1010,9 hPa 0,0 l/m 0 min 2 min 0 W/m 25,7 km/h (4 Bft) 95,74 %
11.03.2019 04:36 3,2 C 2,8 C 2,2 C 90 % 1010,8 hPa 0,0 l/m 0 min 0 min 0 W/m 22,5 km/h (4 Bft) 93,62 %
11.03.2019 04:38 3,2 C 2,8 C 2,2 C 90 % 1010,8 hPa 0,0 l/m 0 min 0 min 0 W/m 16,1 km/h (3 Bft) 95,74 %
11.03.2019 04:40 3,2 C 2,8 C 2,2 C 90 % 1010,8 hPa 0,0 l/m 0 min 0 min 0 W/m 19,3 km/h (3 Bft) 95,65 %
11.03.2019 04:42 3,2 C 2,8 C 2,2 C 90 % 1010,8 hPa 0,0 l/m 0 min 2 min 0 W/m 9,7 km/h (2 Bft) 93,62 %
11.03.2019 04:44 3,3 C 2,8 C 2,2 C 90 % 1010,8 hPa 0,0 l/m 0 min 2 min 0 W/m 16,1 km/h (3 Bft) 95,74 %
11.03.2019 04:46 3,3 C 2,8 C 2,2 C 90 % 1010,9 hPa 0,0 l/m 0 min 0 min 0 W/m 19,3 km/h (3 Bft) 95,74 %
11.03.2019 04:48 3,3 C 2,8 C 2,2 C 90 % 1010,9 hPa 0,0 l/m 0 min 0 min 0 W/m 16,1 km/h (3 Bft) 95,74 %
11.03.2019 04:50 3,3 C 2,8 C 2,2 C 90 % 1010,8 hPa 0,0 l/m 0 min 2 min 0 W/m 22,5 km/h (4 Bft) 95,74 %
11.03.2019 04:52 3,3 C 2,8 C 2,2 C 89 % 1011,0 hPa 0,0 l/m 0 min 2 min 0 W/m 16,1 km/h (3 Bft) 93,48 %
11.03.2019 04:54 3,3 C 2,8 C 2,2 C 89 % 1010,9 hPa 0,0 l/m 0 min 2 min 0 W/m 19,3 km/h (3 Bft) 100,00 %
11.03.2019 04:56 3,3 C 2,8 C 2,2 C 89 % 1010,9 hPa 0,0 l/m 0 min 2 min 0 W/m 16,1 km/h (3 Bft) 97,87 %
11.03.2019 04:58 3,3 C 2,8 C 2,2 C 89 % 1010,9 hPa 0,0 l/m 0 min 0 min 0 W/m 9,7 km/h (2 Bft) 97,87 %
11.03.2019 05:00 3,3 C 2,8 C 2,2 C 88 % 1010,9 hPa 0,0 l/m 0 min 0 min 0 W/m 12,9 km/h (3 Bft) 97,87 %
11.03.2019 05:02 3,3 C 2,8 C 2,2 C 88 % 1010,8 hPa 0,0 l/m 0 min 0 min 0 W/m 9,7 km/h (2 Bft) 97,83 %
11.03.2019 05:04 3,3 C 2,8 C 2,2 C 88 % 1010,9 hPa 0,0 l/m 0 min 0 min 0 W/m 9,7 km/h (2 Bft) 97,87 %
11.03.2019 05:05 3,3 C 2,8 C 2,2 C 88 % 1010,9 hPa 0,0 l/m 0 min 0 min 0 W/m 16,1 km/h (3 Bft) 100,00 %
11.03.2019 05:10 3,3 C 2,8 C 2,2 C 88 % 1011,0 hPa 0,0 l/m 0 min 0 min 0 W/m 16,1 km/h (3 Bft) 100,00 %
11.03.2019 05:12 3,2 C 2,8 C 2,2 C 87 % 1011,1 hPa 0,0 l/m 0 min 0 min 0 W/m 19,3 km/h (3 Bft) 88,24 %
11.03.2019 05:14 3,2 C 2,8 C 2,2 C 87 % 1010,9 hPa 0,0 l/m 0 min 0 min 0 W/m 19,3 km/h (3 Bft) 97,87 %
11.03.2019 05:16 3,2 C 2,8 C 2,2 C 87 % 1011,1 hPa 0,0 l/m 0 min 0 min 0 W/m 16,1 km/h (3 Bft) 100,00 %
11.03.2019 05:18 3,2 C 2,8 C 2,2 C 87 % 1011,0 hPa 0,0 l/m 0 min 0 min 0 W/m 19,3 km/h (3 Bft) 93,75 %
11.03.2019 05:20 3,2 C 2,8 C 2,2 C 87 % 1011,0 hPa 0,0 l/m 0 min 0 min 0 W/m 22,5 km/h (4 Bft) 100,00 %
11.03.2019 05:22 3,3 C 2,2 C 1,7 C 87 % 1011,1 hPa 0,0 l/m 0 min 2 min 0 W/m 9,7 km/h (2 Bft) 100,00 %
11.03.2019 05:24 3,2 C 2,2 C 1,7 C 87 % 1010,9 hPa 0,0 l/m 0 min 2 min 0 W/m 16,1 km/h (3 Bft) 100,00 %
11.03.2019 05:26 3,2 C 2,2 C 1,7 C 87 % 1011,0 hPa 0,0 l/m 0 min 2 min 0 W/m 16,1 km/h (3 Bft) 100,00 %
11.03.2019 05:28 3,2 C 2,2 C 1,7 C 87 % 1011,0 hPa 0,0 l/m 0 min 2 min 0 W/m 16,1 km/h (3 Bft) 100,00 %
11.03.2019 05:30 3,2 C 2,2 C 1,7 C 87 % 1011,2 hPa 0,0 l/m 0 min 2 min 0 W/m 35,4 km/h (5 Bft) 100,00 %
11.03.2019 05:32 3,2 C 2,2 C 1,7 C 87 % 1011,1 hPa 0,0 l/m 0 min 2 min 0 W/m 25,7 km/h (4 Bft) 100,00 %
11.03.2019 05:34 3,2 C 2,2 C 1,7 C 87 % 1011,3 hPa 0,0 l/m 0 min 2 min 0 W/m 16,1 km/h (3 Bft) 100,00 %
11.03.2019 05:36 3,2 C 2,2 C 1,7 C 87 % 1011,3 hPa 0,0 l/m 0 min 2 min 0 W/m 19,3 km/h (3 Bft) 100,00 %
11.03.2019 05:38 3,2 C 2,2 C 1,7 C 88 % 1011,3 hPa 0,0 l/m 0 min 2 min 0 W/m 25,7 km/h (4 Bft) 100,00 %
11.03.2019 05:40 3,2 C 2,2 C 1,7 C 88 % 1011,3 hPa 0,0 l/m 0 min 2 min 0 W/m 19,3 km/h (3 Bft) 100,00 %
11.03.2019 05:42 3,2 C 2,2 C 1,7 C 88 % 1011,3 hPa 0,0 l/m 0 min 2 min 0 W/m 22,5 km/h (4 Bft) 100,00 %
11.03.2019 05:44 3,1 C 2,2 C 1,7 C 88 % 1011,3 hPa 0,0 l/m 0 min 2 min 0 W/m 16,1 km/h (3 Bft) 100,00 %
11.03.2019 05:46 3,1 C 2,2 C 1,7 C 88 % 1011,3 hPa 0,0 l/m 0 min 2 min 0 W/m 16,1 km/h (3 Bft) 100,00 %
11.03.2019 05:48 3,1 C 2,2 C 1,7 C 88 % 1011,3 hPa 0,0 l/m 0 min 0 min 0 W/m 16,1 km/h (3 Bft) 100,00 %
11.03.2019 05:50 3,1 C 2,2 C 1,7 C 88 % 1011,2 hPa 0,0 l/m 0 min 0 min 0 W/m 12,9 km/h (3 Bft) 100,00 %
11.03.2019 05:52 3,1 C 2,2 C 1,7 C 88 % 1011,3 hPa 0,0 l/m 0 min 0 min 0 W/m 12,9 km/h (3 Bft) 100,00 %
11.03.2019 05:54 3,0 C 2,2 C 1,7 C 88 % 1011,2 hPa 0,0 l/m 0 min 0 min 0 W/m 9,7 km/h (2 Bft) 97,92 %
11.03.2019 05:56 3,0 C 2,2 C 1,7 C 88 % 1011,3 hPa 0,0 l/m 0 min 0 min 0 W/m 22,5 km/h (4 Bft) 97,87 %
11.03.2019 05:58 2,9 C 2,2 C 1,7 C 89 % 1011,2 hPa 0,0 l/m 0 min 0 min 0 W/m 16,1 km/h (3 Bft) 100,00 %
11.03.2019 06:00 2,9 C 2,2 C 1,7 C 89 % 1011,3 hPa 0,0 l/m 0 min 0 min 0 W/m 12,9 km/h (3 Bft) 100,00 %
11.03.2019 06:02 2,9 C 2,2 C 1,7 C 89 % 1011,3 hPa 0,0 l/m 0 min 0 min 0 W/m 12,9 km/h (3 Bft) 100,00 %
11.03.2019 06:04 2,9 C 2,2 C 1,7 C 89 % 1011,2 hPa 0,0 l/m 0 min 0 min 0 W/m 25,7 km/h (4 Bft) 100,00 %
11.03.2019 06:08 2,8 C 2,2 C 1,7 C 89 % 1011,4 hPa 0,0 l/m 0 min 0 min 0 W/m 16,1 km/h (3 Bft) 97,98 %
11.03.2019 06:10 2,8 C 2,2 C 1,7 C 89 % 1011,4 hPa 0,0 l/m 0 min 0 min 0 W/m 12,9 km/h (3 Bft) 97,87 %
11.03.2019 06:12 2,8 C 2,2 C 1,7 C 89 % 1011,4 hPa 0,0 l/m 0 min 0 min 0 W/m 9,7 km/h (2 Bft) 97,87 %
11.03.2019 06:14 2,8 C 2,2 C 1,7 C 89 % 1011,4 hPa 0,0 l/m 0 min 0 min 0 W/m 12,9 km/h (3 Bft) 95,74 %
11.03.2019 06:16 2,8 C 2,2 C 1,7 C 89 % 1011,4 hPa 0,0 l/m 0 min 0 min 0 W/m 9,7 km/h (2 Bft) 100,00 %
11.03.2019 06:18 2,8 C 2,2 C 1,7 C 89 % 1011,5 hPa 0,0 l/m 0 min 0 min 0 W/m 12,9 km/h (3 Bft) 95,92 %
11.03.2019 06:20 2,7 C 2,2 C 1,7 C 89 % 1011,5 hPa 0,0 l/m 0 min 0 min 0 W/m 12,9 km/h (3 Bft) 97,96 %
11.03.2019 06:22 2,7 C 2,2 C 1,7 C 89 % 1011,5 hPa 0,0 l/m 0 min 0 min 0 W/m 9,7 km/h (2 Bft) 95,74 %
11.03.2019 06:24 2,7 C 2,2 C 1,7 C 89 % 1011,6 hPa 0,0 l/m 0 min 0 min 0 W/m 19,3 km/h (3 Bft) 95,74 %
11.03.2019 06:26 2,7 C 2,2 C 1,7 C 89 % 1011,6 hPa 0,0 l/m 0 min 0 min 0 W/m 19,3 km/h (3 Bft) 97,87 %
11.03.2019 06:28 2,7 C 2,2 C 1,7 C 89 % 1011,6 hPa 0,0 l/m 0 min 0 min 0 W/m 19,3 km/h (3 Bft) 95,24 %
11.03.2019 06:30 2,7 C 2,2 C 1,7 C 89 % 1011,6 hPa 0,0 l/m 0 min 0 min 0 W/m 25,7 km/h (4 Bft) 95,92 %
11.03.2019 06:32 2,8 C 2,2 C 1,7 C 89 % 1011,5 hPa 0,0 l/m 0 min 0 min 0 W/m 19,3 km/h (3 Bft) 97,96 %
11.03.2019 06:34 2,8 C 2,8 C 1,7 C 89 % 1011,5 hPa 0,0 l/m 0 min 0 min 0 W/m 29,0 km/h (5 Bft) 97,87 %
11.03.2019 06:36 2,8 C 2,2 C 1,7 C 89 % 1011,5 hPa 0,0 l/m 0 min 0 min 0 W/m 22,5 km/h (4 Bft) 91,49 %
11.03.2019 06:38 2,8 C 2,2 C 1,7 C 89 % 1011,5 hPa 0,0 l/m 0 min 0 min 0 W/m 19,3 km/h (3 Bft) 97,56 %
11.03.2019 06:40 2,8 C 2,2 C 1,7 C 89 % 1011,5 hPa 0,0 l/m 0 min 0 min 0 W/m 19,3 km/h (3 Bft) 93,88 %
11.03.2019 06:42 2,8 C 2,2 C 1,7 C 89 % 1011,6 hPa 0,0 l/m 0 min 0 min 0 W/m 19,3 km/h (3 Bft) 95,92 %
11.03.2019 06:44 2,8 C 2,2 C 1,7 C 89 % 1011,6 hPa 0,0 l/m 0 min 0 min 0 W/m 19,3 km/h (3 Bft) 95,83 %
11.03.2019 06:46 2,8 C 2,2 C 1,7 C 89 % 1011,6 hPa 0,0 l/m 0 min 0 min 0 W/m 25,7 km/h (4 Bft) 95,74 %
11.03.2019 06:48 2,8 C 2,2 C 1,7 C 88 % 1011,6 hPa 0,0 l/m 0 min 0 min 0 W/m 19,3 km/h (3 Bft) 95,74 %
11.03.2019 06:50 2,8 C 2,2 C 1,7 C 88 % 1011,6 hPa 0,0 l/m 0 min 0 min 0 W/m 25,7 km/h (4 Bft) 95,12 %
11.03.2019 06:52 2,8 C 2,2 C 1,7 C 88 % 1011,6 hPa 0,0 l/m 0 min 0 min 0 W/m 19,3 km/h (3 Bft) 93,88 %
11.03.2019 06:54 2,8 C 2,2 C 1,7 C 88 % 1011,6 hPa 0,0 l/m 0 min 0 min 0 W/m 19,3 km/h (3 Bft) 93,88 %
11.03.2019 06:56 2,8 C 2,2 C 1,7 C 88 % 1011,6 hPa 0,0 l/m 0 min 0 min 0 W/m 16,1 km/h (3 Bft) 95,83 %
11.03.2019 06:58 2,7 C 2,2 C 1,7 C 88 % 1011,6 hPa 0,0 l/m 0 min 0 min 0 W/m 19,3 km/h (3 Bft) 93,62 %
11.03.2019 07:00 2,7 C 1,7 C 1,1 C 88 % 1011,7 hPa 0,0 l/m 0 min 0 min 0 W/m 19,3 km/h (3 Bft) 91,49 %
11.03.2019 07:02 2,7 C 1,7 C 1,1 C 89 % 1011,6 hPa 0,0 l/m 0 min 0 min 0 W/m 16,1 km/h (3 Bft) 91,30 %
11.03.2019 07:04 2,7 C 1,7 C 1,1 C 89 % 1011,6 hPa 0,0 l/m 0 min 0 min 0 W/m 12,9 km/h (3 Bft) 87,23 %
11.03.2019 07:06 2,7 C 1,7 C 1,1 C 89 % 1011,7 hPa 0,0 l/m 0 min 0 min 0 W/m 19,3 km/h (3 Bft) 85,11 %
11.03.2019 07:08 2,6 C 1,7 C 1,1 C 89 % 1011,6 hPa 0,0 l/m 0 min 0 min 0 W/m 35,4 km/h (5 Bft) 91,49 %
11.03.2019 07:10 2,6 C 1,7 C 1,1 C 89 % 1011,6 hPa 0,0 l/m 0 min 0 min 0 W/m 16,1 km/h (3 Bft) 95,74 %
11.03.2019 07:12 2,6 C 1,7 C 1,1 C 89 % 1011,8 hPa 0,0 l/m 0 min 0 min 0 W/m 29,0 km/h (5 Bft) 95,74 %
11.03.2019 07:14 2,6 C 1,7 C 1,1 C 89 % 1011,8 hPa 0,0 l/m 0 min 0 min 0 W/m 19,3 km/h (3 Bft) 95,65 %
11.03.2019 07:16 2,5 C 1,7 C 1,1 C 89 % 1011,8 hPa 0,0 l/m 0 min 2 min 0 W/m 22,5 km/h (4 Bft) 93,62 %
11.03.2019 07:18 2,5 C 1,1 C 1,1 C 89 % 1011,9 hPa 0,0 l/m 0 min 2 min 0 W/m 25,7 km/h (4 Bft) 93,62 %
11.03.2019 07:20 2,4 C 1,1 C 0,6 C 89 % 1012,0 hPa 0,0 l/m 0 min 2 min 0 W/m 16,1 km/h (3 Bft) 97,87 %
11.03.2019 07:22 2,4 C 1,1 C 0,6 C 89 % 1012,1 hPa 0,2 l/m 0 min 2 min 0 W/m 29,0 km/h (5 Bft) 97,87 %
11.03.2019 07:24 2,4 C 1,1 C 0,6 C 90 % 1012,0 hPa 0,0 l/m 0 min 2 min 0 W/m 12,9 km/h (3 Bft) 95,74 %
11.03.2019 07:26 2,4 C 0,6 C 0,6 C 90 % 1012,1 hPa 0,0 l/m 0 min 2 min 0 W/m 19,3 km/h (3 Bft) 95,65 %
11.03.2019 07:28 2,3 C 0,6 C 0,6 C 90 % 1012,2 hPa 0,2 l/m 0 min 2 min 0 W/m 16,1 km/h (3 Bft) 95,74 %
11.03.2019 07:30 2,2 C 0,6 C 0,6 C 90 % 1012,3 hPa 0,0 l/m 0 min 2 min 4 W/m 22,5 km/h (4 Bft) 97,87 %
11.03.2019 07:32 2,2 C 0,6 C 0,6 C 90 % 1012,3 hPa 0,0 l/m 0 min 2 min 6 W/m 22,5 km/h (4 Bft) 91,49 %
11.03.2019 07:34 2,1 C 0,6 C 0,6 C 90 % 1012,2 hPa 0,0 l/m 0 min 2 min 7 W/m 22,5 km/h (4 Bft) 93,62 %
11.03.2019 07:36 2,1 C 0,6 C 0,6 C 91 % 1012,5 hPa 0,0 l/m 0 min 2 min 6 W/m 16,1 km/h (3 Bft) 95,74 %
11.03.2019 07:38 2,0 C 0,6 C 0,6 C 91 % 1012,6 hPa 0,0 l/m 0 min 2 min 3 W/m 25,7 km/h (4 Bft) 100,00 %
11.03.2019 07:40 1,9 C 0,6 C 0,6 C 91 % 1012,5 hPa 0,0 l/m 0 min 2 min 3 W/m 25,7 km/h (4 Bft) 97,87 %
11.03.2019 07:42 1,9 C 0,6 C 0,6 C 91 % 1012,5 hPa 0,0 l/m 0 min 2 min 6 W/m 25,7 km/h (4 Bft) 91,49 %
11.03.2019 07:44 1,9 C 0,6 C 0,6 C 91 % 1012,6 hPa 0,0 l/m 0 min 2 min 10 W/m 22,5 km/h (4 Bft) 87,23 %
11.03.2019 07:46 1,8 C 0,6 C 0,6 C 91 % 1012,5 hPa 0,0 l/m 0 min 2 min 16 W/m 16,1 km/h (3 Bft) 74,47 %
11.03.2019 07:48 1,8 C 0,6 C 0,6 C 92 % 1012,6 hPa 0,0 l/m 0 min 2 min 18 W/m 19,3 km/h (3 Bft) 73,91 %
11.03.2019 07:50 1,8 C 0,6 C 0,0 C 92 % 1012,5 hPa 0,0 l/m 0 min 2 min 9 W/m 12,9 km/h (3 Bft) 100,00 %
11.03.2019 07:52 1,8 C 0,6 C 0,0 C 92 % 1012,6 hPa 0,0 l/m 0 min 2 min 10 W/m 22,5 km/h (4 Bft) 95,74 %
11.03.2019 07:54 1,7 C 0,6 C 0,0 C 92 % 1012,6 hPa 0,0 l/m 0 min 2 min 15 W/m 16,1 km/h (3 Bft) 100,00 %
11.03.2019 07:56 1,7 C 0,6 C 0,0 C 92 % 1012,5 hPa 0,0 l/m 0 min 2 min 20 W/m 12,9 km/h (3 Bft) 100,00 %
11.03.2019 07:58 1,7 C 0,6 C 0,0 C 92 % 1012,6 hPa 0,2 l/m 0 min 2 min 31 W/m 22,5 km/h (4 Bft) 97,87 %
11.03.2019 08:00 1,7 C 0,6 C 0,6 C 92 % 1012,6 hPa 0,0 l/m 0 min 2 min 47 W/m 9,7 km/h (2 Bft) 100,00 %
11.03.2019 08:02 1,7 C 0,6 C 0,6 C 93 % 1012,6 hPa 0,0 l/m 0 min 2 min 41 W/m 9,7 km/h (2 Bft) 100,00 %
11.03.2019 08:04 1,7 C 0,6 C 0,6 C 93 % 1012,6 hPa 0,0 l/m 0 min 2 min 40 W/m 12,9 km/h (3 Bft) 100,00 %
11.03.2019 08:06 1,7 C 0,6 C 0,6 C 93 % 1012,5 hPa 0,0 l/m 0 min 2 min 42 W/m 12,9 km/h (3 Bft) 100,00 %
11.03.2019 08:08 1,7 C 1,1 C 0,6 C 93 % 1012,5 hPa 0,0 l/m 0 min 2 min 63 W/m 12,9 km/h (3 Bft) 100,00 %
11.03.2019 08:10 1,7 C 1,1 C 0,6 C 93 % 1012,5 hPa 0,0 l/m 0 min 2 min 63 W/m 9,7 km/h (2 Bft) 97,87 %
11.03.2019 08:12 1,7 C 1,1 C 0,6 C 93 % 1012,6 hPa 0,2 l/m 0 min 2 min 49 W/m 6,4 km/h (2 Bft) 97,83 %
11.03.2019 08:14 1,8 C 1,1 C 1,1 C 93 % 1012,6 hPa 0,0 l/m 0 min 2 min 58 W/m 12,9 km/h (3 Bft) 97,87 %
11.03.2019 08:16 1,8 C 1,7 C 1,1 C 93 % 1012,5 hPa 0,0 l/m 0 min 0 min 90 W/m 9,7 km/h (2 Bft) 97,87 %
11.03.2019 08:18 1,9 C 1,7 C 1,1 C 94 % 1012,5 hPa 0,0 l/m 2 min 0 min 113 W/m 22,5 km/h (4 Bft) 97,87 %
11.03.2019 08:20 1,9 C 1,7 C 1,1 C 94 % 1012,5 hPa 0,0 l/m 2 min 2 min 110 W/m 19,3 km/h (3 Bft) 82,98 %
11.03.2019 08:22 2,0 C 1,7 C 1,1 C 94 % 1012,6 hPa 0,0 l/m 0 min 2 min 92 W/m 25,7 km/h (4 Bft) 82,98 %
11.03.2019 08:24 2,1 C 1,7 C 1,1 C 94 % 1012,6 hPa 0,0 l/m 0 min 2 min 78 W/m 19,3 km/h (3 Bft) 97,83 %
11.03.2019 08:26 2,1 C 1,7 C 1,1 C 94 % 1012,6 hPa 0,0 l/m 0 min 2 min 76 W/m 38,6 km/h (5 Bft) 100,00 %
11.03.2019 08:28 2,2 C 1,7 C 1,1 C 94 % 1012,6 hPa 0,0 l/m 0 min 2 min 79 W/m 19,3 km/h (3 Bft) 95,74 %
11.03.2019 08:30 2,2 C 1,7 C 1,1 C 94 % 1012,6 hPa 0,0 l/m 0 min 0 min 85 W/m 19,3 km/h (3 Bft) 97,87 %
11.03.2019 08:32 2,2 C 1,7 C 1,7 C 94 % 1012,7 hPa 0,0 l/m 0 min 0 min 70 W/m 19,3 km/h (3 Bft) 97,87 %
11.03.2019 08:34 2,2 C 1,7 C 1,1 C 94 % 1012,6 hPa 0,0 l/m 0 min 0 min 56 W/m 16,1 km/h (3 Bft) 93,62 %
11.03.2019 08:36 2,3 C 1,7 C 1,1 C 94 % 1012,7 hPa 0,0 l/m 0 min 0 min 53 W/m 16,1 km/h (3 Bft) 97,83 %
11.03.2019 08:38 2,3 C 1,7 C 1,7 C 94 % 1012,7 hPa 0,0 l/m 0 min 0 min 73 W/m 19,3 km/h (3 Bft) 100,00 %
11.03.2019 08:40 2,3 C 1,7 C 1,7 C 94 % 1012,7 hPa 0,0 l/m 0 min 0 min 66 W/m 16,1 km/h (3 Bft) 100,00 %
11.03.2019 08:42 2,3 C 1,7 C 1,7 C 94 % 1012,7 hPa 0,0 l/m 0 min 0 min 84 W/m 29,0 km/h (5 Bft) 97,87 %
11.03.2019 08:44 2,4 C 1,7 C 1,7 C 94 % 1012,8 hPa 0,0 l/m 0 min 0 min 80 W/m 19,3 km/h (3 Bft) 100,00 %
11.03.2019 08:46 2,4 C 1,7 C 1,7 C 94 % 1012,7 hPa 0,0 l/m 0 min 0 min 50 W/m 16,1 km/h (3 Bft) 100,00 %
11.03.2019 08:48 2,4 C 1,7 C 1,7 C 94 % 1012,8 hPa 0,0 l/m 0 min 0 min 52 W/m 12,9 km/h (3 Bft) 100,00 %
11.03.2019 08:50 2,4 C 1,7 C 1,7 C 94 % 1012,8 hPa 0,0 l/m 0 min 2 min 36 W/m 16,1 km/h (3 Bft) 100,00 %
11.03.2019 08:52 2,4 C 1,7 C 1,1 C 94 % 1012,9 hPa 0,0 l/m 0 min 2 min 25 W/m 16,1 km/h (3 Bft) 100,00 %
11.03.2019 08:54 2,4 C 1,7 C 1,1 C 94 % 1012,9 hPa 0,0 l/m 0 min 2 min 30 W/m 16,1 km/h (3 Bft) 100,00 %
11.03.2019 08:56 2,4 C 1,7 C 1,1 C 94 % 1013,0 hPa 0,0 l/m 0 min 2 min 34 W/m 12,9 km/h (3 Bft) 91,49 %
11.03.2019 08:58 2,4 C 1,7 C 1,7 C 94 % 1013,0 hPa 0,0 l/m 0 min 2 min 46 W/m 12,9 km/h (3 Bft) 100,00 %
11.03.2019 09:00 2,4 C 1,7 C 1,7 C 94 % 1013,0 hPa 0,0 l/m 0 min 0 min 55 W/m 25,7 km/h (4 Bft) 100,00 %
11.03.2019 09:02 2,4 C 1,7 C 1,7 C 94 % 1013,1 hPa 0,0 l/m 0 min 0 min 38 W/m 9,7 km/h (2 Bft) 97,87 %
11.03.2019 09:04 2,4 C 1,7 C 1,7 C 94 % 1013,1 hPa 0,0 l/m 0 min 0 min 28 W/m 12,9 km/h (3 Bft) 97,87 %
11.03.2019 09:06 2,5 C 1,7 C 1,7 C 94 % 1013,1 hPa 0,0 l/m 0 min 0 min 38 W/m 16,1 km/h (3 Bft) 95,74 %
11.03.2019 09:08 2,5 C 1,7 C 1,7 C 94 % 1013,1 hPa 0,0 l/m 0 min 0 min 42 W/m 16,1 km/h (3 Bft) 95,74 %
11.03.2019 09:10 2,5 C 1,7 C 1,7 C 94 % 1013,0 hPa 0,0 l/m 0 min 0 min 38 W/m 16,1 km/h (3 Bft) 100,00 %
11.03.2019 09:12 2,5 C 1,7 C 1,7 C 94 % 1013,1 hPa 0,0 l/m 0 min 0 min 37 W/m 19,3 km/h (3 Bft) 91,49 %
11.03.2019 09:14 2,5 C 2,2 C 1,7 C 94 % 1013,2 hPa 0,0 l/m 0 min 0 min 50 W/m 22,5 km/h (4 Bft) 80,85 %
11.03.2019 09:16 2,5 C 2,2 C 1,7 C 94 % 1013,3 hPa 0,0 l/m 0 min 0 min 66 W/m 16,1 km/h (3 Bft) 95,74 %
11.03.2019 09:18 2,6 C 2,2 C 1,7 C 94 % 1013,4 hPa 0,0 l/m 0 min 0 min 99 W/m 16,1 km/h (3 Bft) 93,62 %
11.03.2019 09:20 2,6 C 2,2 C 1,7 C 94 % 1013,5 hPa 0,0 l/m 0 min 0 min 85 W/m 22,5 km/h (4 Bft) 95,74 %
11.03.2019 09:22 2,6 C 2,8 C 2,2 C 94 % 1013,4 hPa 0,0 l/m 0 min 0 min 146 W/m 19,3 km/h (3 Bft) 97,83 %
11.03.2019 09:24 2,7 C 2,8 C 2,2 C 94 % 1013,4 hPa 0,0 l/m 0 min 0 min 138 W/m 25,7 km/h (4 Bft) 85,11 %
11.03.2019 09:26 2,7 C 2,8 C 2,2 C 94 % 1013,4 hPa 0,0 l/m 0 min 0 min 159 W/m 19,3 km/h (3 Bft) 87,23 %
11.03.2019 09:28 2,8 C 3,3 C 2,8 C 94 % 1013,4 hPa 0,0 l/m 2 min 0 min 182 W/m 19,3 km/h (3 Bft) 91,49 %
11.03.2019 09:30 2,9 C 3,9 C 2,8 C 94 % 1013,4 hPa 0,0 l/m 2 min 0 min 269 W/m 25,7 km/h (4 Bft) 95,74 %
11.03.2019 09:32 2,9 C 3,3 C 2,8 C 94 % 1013,4 hPa 0,0 l/m 2 min 0 min 243 W/m 22,5 km/h (4 Bft) 91,49 %
11.03.2019 09:34 3,0 C 2,8 C 2,2 C 94 % 1013,5 hPa 0,0 l/m 0 min 0 min 86 W/m 29,0 km/h (5 Bft) 91,30 %
11.03.2019 09:36 3,0 C 2,8 C 2,2 C 94 % 1013,6 hPa 0,0 l/m 0 min 0 min 98 W/m 19,3 km/h (3 Bft) 91,49 %
11.03.2019 09:38 3,1 C 3,3 C 2,8 C 94 % 1013,6 hPa 0,0 l/m 0 min 0 min 170 W/m 16,1 km/h (3 Bft) 95,74 %
11.03.2019 09:40 3,1 C 3,3 C 2,8 C 93 % 1013,6 hPa 0,0 l/m 0 min 0 min 189 W/m 22,5 km/h (4 Bft) 95,74 %
11.03.2019 09:42 3,1 C 3,3 C 2,8 C 93 % 1013,6 hPa 0,0 l/m 0 min 0 min 187 W/m 25,7 km/h (4 Bft) 93,62 %
11.03.2019 09:44 3,2 C 3,3 C 2,8 C 93 % 1013,7 hPa 0,0 l/m 0 min 0 min 154 W/m 25,7 km/h (4 Bft) 93,62 %
11.03.2019 09:46 3,2 C 3,3 C 2,8 C 93 % 1013,7 hPa 0,0 l/m 2 min 0 min 199 W/m 25,7 km/h (4 Bft) 93,48 %
11.03.2019 09:48 3,2 C 3,3 C 2,8 C 93 % 1013,7 hPa 0,0 l/m 2 min 0 min 229 W/m 12,9 km/h (3 Bft) 93,62 %
11.03.2019 09:50 3,2 C 3,3 C 2,8 C 93 % 1013,7 hPa 0,0 l/m 0 min 0 min 193 W/m 19,3 km/h (3 Bft) 93,62 %
11.03.2019 09:52 3,3 C 3,3 C 2,8 C 93 % 1013,8 hPa 0,0 l/m 0 min 0 min 180 W/m 12,9 km/h (3 Bft) 91,49 %
11.03.2019 09:54 3,3 C 3,3 C 2,8 C 93 % 1013,8 hPa 0,0 l/m 2 min 0 min 224 W/m 19,3 km/h (3 Bft) 89,36 %
11.03.2019 09:56 3,4 C 3,3 C 2,8 C 93 % 1013,9 hPa 0,0 l/m 2 min 0 min 221 W/m 25,7 km/h (4 Bft) 91,49 %
11.03.2019 09:58 3,4 C 3,3 C 2,8 C 93 % 1014,0 hPa 0,0 l/m 0 min 0 min 181 W/m 22,5 km/h (4 Bft) 93,48 %
11.03.2019 10:00 3,4 C 3,3 C 2,8 C 93 % 1014,0 hPa 0,0 l/m 0 min 0 min 152 W/m 22,5 km/h (4 Bft) 93,62 %
11.03.2019 10:02 3,4 C 2,8 C 2,8 C 93 % 1013,9 hPa 0,0 l/m 0 min 0 min 134 W/m 22,5 km/h (4 Bft) 91,49 %
11.03.2019 10:04 3,4 C 2,8 C 2,2 C 92 % 1013,9 hPa 0,0 l/m 0 min 0 min 98 W/m 16,1 km/h (3 Bft) 93,62 %
11.03.2019 10:06 3,4 C 2,8 C 2,2 C 92 % 1014,0 hPa 0,0 l/m 0 min 0 min 92 W/m 22,5 km/h (4 Bft) 93,62 %
11.03.2019 10:08 3,4 C 2,8 C 2,2 C 92 % 1014,0 hPa 0,0 l/m 0 min 0 min 104 W/m 19,3 km/h (3 Bft) 95,65 %
11.03.2019 10:10 3,3 C 2,8 C 2,2 C 92 % 1014,0 hPa 0,0 l/m 0 min 2 min 104 W/m 9,7 km/h (2 Bft) 95,74 %
11.03.2019 10:12 3,3 C 2,8 C 2,2 C 92 % 1014,0 hPa 0,0 l/m 0 min 0 min 111 W/m 22,5 km/h (4 Bft) 95,74 %
11.03.2019 10:14 3,3 C 2,8 C 2,2 C 92 % 1013,9 hPa 0,0 l/m 0 min 0 min 137 W/m 16,1 km/h (3 Bft) 97,87 %
11.03.2019 10:16 3,3 C 3,3 C 2,8 C 92 % 1013,9 hPa 0,0 l/m 0 min 0 min 168 W/m 19,3 km/h (3 Bft) 97,87 %
11.03.2019 10:18 3,3 C 3,3 C 2,8 C 92 % 1013,9 hPa 0,0 l/m 0 min 0 min 200 W/m 25,7 km/h (4 Bft) 95,74 %
11.03.2019 10:20 3,3 C 3,9 C 2,8 C 92 % 1013,9 hPa 0,0 l/m 2 min 0 min 247 W/m 22,5 km/h (4 Bft) 97,83 %
11.03.2019 10:22 3,3 C 4,4 C 2,8 C 92 % 1013,9 hPa 0,0 l/m 2 min 0 min 266 W/m 16,1 km/h (3 Bft) 97,87 %
11.03.2019 10:24 3,4 C 3,9 C 3,3 C 92 % 1013,9 hPa 0,0 l/m 2 min 0 min 259 W/m 19,3 km/h (3 Bft) 93,62 %
11.03.2019 10:26 3,4 C 3,9 C 2,8 C 92 % 1013,9 hPa 0,0 l/m 0 min 0 min 180 W/m 19,3 km/h (3 Bft) 97,87 %
11.03.2019 10:28 3,4 C 3,3 C 2,8 C 92 % 1014,0 hPa 0,0 l/m 0 min 0 min 191 W/m 32,2 km/h (5 Bft) 97,87 %
11.03.2019 10:30 3,4 C 3,3 C 2,8 C 92 % 1014,0 hPa 0,0 l/m 0 min 0 min 171 W/m 19,3 km/h (3 Bft) 97,87 %
11.03.2019 10:32 3,5 C 5,6 C 2,8 C 92 % 1014,1 hPa 0,0 l/m 2 min 0 min 287 W/m 19,3 km/h (3 Bft) 97,83 %
11.03.2019 10:34 3,6 C 6,7 C 3,9 C 92 % 1014,0 hPa 0,0 l/m 2 min 0 min 560 W/m 25,7 km/h (4 Bft) 100,00 %
11.03.2019 10:36 3,8 C 7,2 C 3,9 C 93 % 1014,0 hPa 0,0 l/m 2 min 0 min 582 W/m 22,5 km/h (4 Bft) 97,87 %
11.03.2019 10:38 3,9 C 6,7 C 3,9 C 92 % 1014,0 hPa 0,0 l/m 2 min 0 min 615 W/m 22,5 km/h (4 Bft) 100,00 %
11.03.2019 10:40 4,1 C 5,6 C 3,9 C 93 % 1014,0 hPa 0,0 l/m 2 min 0 min 310 W/m 25,7 km/h (4 Bft) 97,87 %
11.03.2019 10:42 4,1 C 5,0 C 3,9 C 92 % 1014,0 hPa 0,0 l/m 2 min 0 min 253 W/m 25,7 km/h (4 Bft) 100,00 %
11.03.2019 10:44 4,2 C 4,4 C 3,9 C 92 % 1014,0 hPa 0,0 l/m 2 min 0 min 243 W/m 25,7 km/h (4 Bft) 100,00 %
11.03.2019 10:46 4,2 C 5,0 C 3,9 C 92 % 1014,0 hPa 0,0 l/m 0 min 0 min 219 W/m 25,7 km/h (4 Bft) 100,00 %
11.03.2019 10:48 4,2 C 4,4 C 3,9 C 92 % 1014,1 hPa 0,0 l/m 0 min 0 min 174 W/m 16,1 km/h (3 Bft) 100,00 %
11.03.2019 10:50 4,2 C 5,0 C 3,9 C 91 % 1014,2 hPa 0,0 l/m 2 min 0 min 265 W/m 16,1 km/h (3 Bft) 97,87 %
11.03.2019 10:52 4,3 C 5,6 C 3,9 C 91 % 1014,2 hPa 0,0 l/m 2 min 0 min 253 W/m 19,3 km/h (3 Bft) 100,00 %
11.03.2019 10:54 4,3 C 6,1 C 3,9 C 91 % 1014,1 hPa 0,0 l/m 0 min 0 min 246 W/m 19,3 km/h (3 Bft) 100,00 %
11.03.2019 10:56 4,4 C 5,6 C 4,4 C 91 % 1014,2 hPa 0,0 l/m 2 min 0 min 394 W/m 16,1 km/h (3 Bft) 97,83 %
11.03.2019 10:58 4,5 C 6,7 C 4,4 C 91 % 1014,3 hPa 0,0 l/m 2 min 0 min 298 W/m 16,1 km/h (3 Bft) 100,00 %
11.03.2019 11:00 4,6 C 6,7 C 5,0 C 91 % 1014,3 hPa 0,0 l/m 2 min 0 min 327 W/m 9,7 km/h (2 Bft) 100,00 %
11.03.2019 11:02 4,7 C 6,1 C 4,4 C 91 % 1014,2 hPa 0,0 l/m 2 min 0 min 279 W/m 29,0 km/h (5 Bft) 100,00 %
11.03.2019 11:04 4,8 C 5,6 C 4,4 C 91 % 1014,3 hPa 0,0 l/m 2 min 0 min 256 W/m 25,7 km/h (4 Bft) 100,00 %
11.03.2019 11:06 4,9 C 6,1 C 5,0 C 90 % 1014,3 hPa 0,0 l/m 2 min 0 min 375 W/m 19,3 km/h (3 Bft) 97,87 %
11.03.2019 11:08 4,9 C 5,6 C 4,4 C 90 % 1014,3 hPa 0,0 l/m 2 min 0 min 291 W/m 22,5 km/h (4 Bft) 100,00 %
11.03.2019 11:10 5,0 C 5,6 C 4,4 C 90 % 1014,2 hPa 0,0 l/m 0 min 0 min 204 W/m 16,1 km/h (3 Bft) 100,00 %
11.03.2019 11:12 5,1 C 5,6 C 4,4 C 90 % 1014,2 hPa 0,0 l/m 0 min 0 min 232 W/m 22,5 km/h (4 Bft) 100,00 %
11.03.2019 11:14 5,1 C 5,6 C 4,4 C 89 % 1014,2 hPa 0,0 l/m 2 min 0 min 277 W/m 25,7 km/h (4 Bft) 100,00 %
11.03.2019 11:16 5,1 C 5,6 C 4,4 C 89 % 1014,3 hPa 0,0 l/m 0 min 0 min 229 W/m 32,2 km/h (5 Bft) 100,00 %
11.03.2019 11:18 5,1 C 6,7 C 4,4 C 88 % 1014,3 hPa 0,0 l/m 2 min 0 min 269 W/m 25,7 km/h (4 Bft) 100,00 %
11.03.2019 11:20 5,2 C 7,2 C 5,0 C 87 % 1014,2 hPa 0,0 l/m 2 min 0 min 305 W/m 41,8 km/h (6 Bft) 100,00 %
11.03.2019 11:22 5,2 C 8,3 C 5,0 C 87 % 1014,3 hPa 0,0 l/m 2 min 0 min 340 W/m 25,7 km/h (4 Bft) 100,00 %
11.03.2019 11:24 5,3 C 9,4 C 5,6 C 87 % 1014,3 hPa 0,0 l/m 2 min 0 min 427 W/m 32,2 km/h (5 Bft) 97,87 %
11.03.2019 11:26 5,4 C 10,6 C 6,1 C 86 % 1014,3 hPa 0,0 l/m 2 min 0 min 708 W/m 16,1 km/h (3 Bft) 97,87 %
11.03.2019 11:28 5,6 C 10,0 C 6,1 C 86 % 1014,3 hPa 0,0 l/m 2 min 0 min 718 W/m 32,2 km/h (5 Bft) 97,87 %
11.03.2019 11:30 5,8 C 9,4 C 6,1 C 85 % 1014,3 hPa 0,0 l/m 2 min 0 min 679 W/m 32,2 km/h (5 Bft) 100,00 %
11.03.2019 11:32 5,9 C 10,0 C 6,7 C 85 % 1014,3 hPa 0,0 l/m 2 min 0 min 649 W/m 25,7 km/h (4 Bft) 100,00 %
11.03.2019 11:34 6,2 C 10,0 C 6,7 C 84 % 1014,3 hPa 0,0 l/m 2 min 0 min 556 W/m 22,5 km/h (4 Bft) 100,00 %
11.03.2019 11:36 6,3 C 10,0 C 6,7 C 84 % 1014,3 hPa 0,0 l/m 2 min 0 min 478 W/m 19,3 km/h (3 Bft) 100,00 %
11.03.2019 11:38 6,3 C 8,3 C 6,1 C 83 % 1014,4 hPa 0,0 l/m 0 min 0 min 252 W/m 38,6 km/h (5 Bft) 97,87 %
11.03.2019 11:40 6,2 C 8,3 C 6,1 C 83 % 1014,4 hPa 0,0 l/m 0 min 0 min 249 W/m 38,6 km/h (5 Bft) 100,00 %
11.03.2019 11:42 6,1 C 7,2 C 6,1 C 83 % 1014,4 hPa 0,0 l/m 0 min 0 min 239 W/m 29,0 km/h (5 Bft) 100,00 %
11.03.2019 11:44 6,1 C 7,8 C 6,1 C 83 % 1014,5 hPa 0,0 l/m 2 min 0 min 375 W/m 22,5 km/h (4 Bft) 100,00 %
11.03.2019 11:46 6,1 C 8,9 C 6,1 C 83 % 1014,4 hPa 0,0 l/m 0 min 0 min 206 W/m 41,8 km/h (6 Bft) 100,00 %
11.03.2019 11:48 6,2 C 9,4 C 6,7 C 82 % 1014,4 hPa 0,0 l/m 2 min 0 min 482 W/m 16,1 km/h (3 Bft) 97,87 %
11.03.2019 11:50 6,3 C 8,9 C 6,1 C 82 % 1014,5 hPa 0,0 l/m 2 min 0 min 339 W/m 32,2 km/h (5 Bft) 97,87 %
11.03.2019 11:52 6,3 C 9,4 C 6,1 C 82 % 1014,4 hPa 0,0 l/m 2 min 0 min 314 W/m 32,2 km/h (5 Bft) 97,87 %
11.03.2019 11:54 6,3 C 10,6 C 6,1 C 81 % 1014,5 hPa 0,0 l/m 2 min 0 min 594 W/m 19,3 km/h (3 Bft) 95,65 %
11.03.2019 11:56 6,5 C 11,7 C 6,7 C 82 % 1014,5 hPa 0,0 l/m 2 min 0 min 669 W/m 19,3 km/h (3 Bft) 95,74 %
11.03.2019 11:58 6,8 C 11,7 C 7,2 C 82 % 1014,6 hPa 0,0 l/m 2 min 0 min 708 W/m 22,5 km/h (4 Bft) 97,87 %
11.03.2019 12:00 6,9 C 10,0 C 7,2 C 80 % 1014,6 hPa 0,0 l/m 2 min 0 min 480 W/m 19,3 km/h (3 Bft) 95,74 %
11.03.2019 12:02 6,9 C 9,4 C 7,2 C 80 % 1014,6 hPa 0,0 l/m 2 min 0 min 326 W/m 22,5 km/h (4 Bft) 95,74 %
11.03.2019 12:04 6,8 C 8,9 C 7,2 C 80 % 1014,7 hPa 0,0 l/m 2 min 0 min 289 W/m 22,5 km/h (4 Bft) 95,74 %
11.03.2019 12:07 6,7 C 9,4 C 7,8 C 80 % 1014,8 hPa 0,0 l/m 3 min 0 min 307 W/m 29,0 km/h (5 Bft) 97,14 %
11.03.2019 12:08 6,8 C 9,4 C 7,8 C 79 % 1014,8 hPa 0,0 l/m 1 min 0 min 547 W/m 16,1 km/h (3 Bft) 100,00 %
11.03.2019 12:10 6,8 C 8,3 C 7,2 C 79 % 1014,7 hPa 0,0 l/m 2 min 0 min 436 W/m 32,2 km/h (5 Bft) 97,87 %
11.03.2019 12:12 6,8 C 8,3 C 7,2 C 79 % 1014,8 hPa 0,0 l/m 2 min 0 min 345 W/m 25,7 km/h (4 Bft) 95,74 %
11.03.2019 12:14 6,9 C 9,4 C 7,2 C 79 % 1014,9 hPa 0,0 l/m 2 min 0 min 412 W/m 45,1 km/h (6 Bft) 95,74 %
11.03.2019 12:16 6,9 C 10,0 C 7,8 C 79 % 1014,9 hPa 0,0 l/m 2 min 0 min 413 W/m 25,7 km/h (4 Bft) 93,62 %
11.03.2019 12:18 7,0 C 12,2 C 7,8 C 79 % 1014,8 hPa 0,0 l/m 2 min 0 min 542 W/m 29,0 km/h (5 Bft) 95,65 %
11.03.2019 12:20 7,2 C 13,9 C 8,3 C 79 % 1014,9 hPa 0,0 l/m 2 min 0 min 791 W/m 19,3 km/h (3 Bft) 97,87 %
11.03.2019 12:22 7,4 C 13,9 C 8,9 C 80 % 1015,0 hPa 0,0 l/m 2 min 0 min 639 W/m 19,3 km/h (3 Bft) 95,74 %
11.03.2019 12:24 7,6 C 13,9 C 8,9 C 79 % 1015,0 hPa 0,0 l/m 2 min 0 min 671 W/m 25,7 km/h (4 Bft) 95,74 %
11.03.2019 12:26 7,8 C 13,3 C 8,3 C 79 % 1015,1 hPa 0,0 l/m 2 min 0 min 766 W/m 41,8 km/h (6 Bft) 95,74 %
11.03.2019 12:28 7,9 C 12,8 C 8,3 C 77 % 1015,1 hPa 0,0 l/m 2 min 0 min 745 W/m 32,2 km/h (5 Bft) 97,87 %
11.03.2019 12:30 8,1 C 12,2 C 8,3 C 76 % 1015,0 hPa 0,0 l/m 2 min 0 min 697 W/m 32,2 km/h (5 Bft) 95,65 %
11.03.2019 12:32 8,1 C 11,7 C 8,3 C 76 % 1015,1 hPa 0,0 l/m 2 min 0 min 478 W/m 29,0 km/h (5 Bft) 97,87 %
11.03.2019 12:34 8,1 C 11,7 C 8,3 C 75 % 1015,1 hPa 0,0 l/m 2 min 0 min 346 W/m 48,3 km/h (6 Bft) 97,87 %
11.03.2019 12:36 8,2 C 12,8 C 10,0 C 75 % 1015,0 hPa 0,0 l/m 2 min 0 min 773 W/m 25,7 km/h (4 Bft) 97,87 %
11.03.2019 12:38 8,2 C 11,1 C 9,4 C 74 % 1015,1 hPa 0,0 l/m 2 min 0 min 287 W/m 35,4 km/h (5 Bft) 95,74 %
11.03.2019 12:40 8,2 C 11,1 C 9,4 C 74 % 1015,1 hPa 0,0 l/m 2 min 0 min 325 W/m 45,1 km/h (6 Bft) 97,83 %
11.03.2019 12:42 8,2 C 11,1 C 10,0 C 73 % 1015,1 hPa 0,0 l/m 2 min 0 min 330 W/m 25,7 km/h (4 Bft) 97,87 %
11.03.2019 12:44 8,2 C 11,7 C 11,1 C 73 % 1015,0 hPa 0,0 l/m 2 min 0 min 323 W/m 35,4 km/h (5 Bft) 95,74 %
11.03.2019 12:46 8,3 C 10,6 C 9,4 C 72 % 1015,2 hPa 0,0 l/m 2 min 0 min 302 W/m 32,2 km/h (5 Bft) 97,87 %
11.03.2019 12:48 8,2 C 10,6 C 9,4 C 72 % 1015,2 hPa 0,0 l/m 2 min 0 min 332 W/m 25,7 km/h (4 Bft) 97,87 %
11.03.2019 12:50 8,2 C 9,4 C 8,9 C 72 % 1015,2 hPa 0,0 l/m 2 min 0 min 292 W/m 38,6 km/h (5 Bft) 97,87 %
11.03.2019 12:52 8,2 C 8,9 C 8,3 C 71 % 1015,2 hPa 0,0 l/m 0 min 0 min 266 W/m 29,0 km/h (5 Bft) 97,83 %
11.03.2019 12:54 8,1 C 8,9 C 8,3 C 71 % 1015,2 hPa 0,0 l/m 0 min 0 min 265 W/m 29,0 km/h (5 Bft) 97,87 %
11.03.2019 12:56 8,1 C 8,3 C 7,8 C 71 % 1015,3 hPa 0,0 l/m 0 min 0 min 192 W/m 41,8 km/h (6 Bft) 97,87 %
11.03.2019 12:58 7,9 C 7,8 C 7,2 C 71 % 1015,4 hPa 0,0 l/m 0 min 0 min 178 W/m 29,0 km/h (5 Bft) 97,87 %
11.03.2019 13:00 7,8 C 7,2 C 7,2 C 72 % 1015,3 hPa 0,0 l/m 0 min 0 min 191 W/m 29,0 km/h (5 Bft) 95,74 %
11.03.2019 13:02 7,7 C 7,2 C 6,7 C 72 % 1015,5 hPa 0,0 l/m 0 min 0 min 129 W/m 38,6 km/h (5 Bft) 97,87 %
11.03.2019 13:04 7,6 C 6,7 C 6,7 C 72 % 1015,4 hPa 0,0 l/m 0 min 0 min 88 W/m 32,2 km/h (5 Bft) 95,65 %
11.03.2019 13:06 7,4 C 7,8 C 7,2 C 72 % 1015,4 hPa 0,0 l/m 0 min 0 min 144 W/m 22,5 km/h (4 Bft) 97,87 %
11.03.2019 13:08 7,4 C 8,3 C 7,8 C 72 % 1015,4 hPa 0,0 l/m 2 min 0 min 351 W/m 22,5 km/h (4 Bft) 97,87 %
11.03.2019 13:10 7,4 C 11,1 C 10,0 C 73 % 1015,5 hPa 0,0 l/m 2 min 0 min 592 W/m 25,7 km/h (4 Bft) 100,00 %
11.03.2019 13:12 7,5 C 11,7 C 10,6 C 74 % 1015,5 hPa 0,0 l/m 2 min 0 min 583 W/m 22,5 km/h (4 Bft) 95,74 %
11.03.2019 13:14 7,7 C 12,8 C 12,2 C 74 % 1015,5 hPa 0,0 l/m 2 min 0 min 583 W/m 16,1 km/h (3 Bft) 95,74 %
11.03.2019 13:16 7,8 C 13,9 C 13,3 C 75 % 1015,6 hPa 0,0 l/m 2 min 0 min 582 W/m 19,3 km/h (3 Bft) 97,83 %
11.03.2019 13:18 8,1 C 12,2 C 11,7 C 75 % 1015,5 hPa 0,0 l/m 2 min 0 min 581 W/m 25,7 km/h (4 Bft) 100,00 %
11.03.2019 13:20 8,2 C 13,3 C 12,2 C 75 % 1015,5 hPa 0,0 l/m 2 min 0 min 382 W/m 22,5 km/h (4 Bft) 97,87 %
11.03.2019 13:22 8,3 C 13,9 C 13,3 C 74 % 1015,6 hPa 0,0 l/m 2 min 0 min 579 W/m 25,7 km/h (4 Bft) 100,00 %
11.03.2019 13:24 8,4 C 13,3 C 12,8 C 73 % 1015,6 hPa 0,0 l/m 2 min 0 min 578 W/m 25,7 km/h (4 Bft) 100,00 %
11.03.2019 13:26 8,5 C 12,8 C 12,2 C 72 % 1015,6 hPa 0,0 l/m 2 min 0 min 577 W/m 25,7 km/h (4 Bft) 100,00 %
11.03.2019 13:28 8,6 C 10,6 C 10,0 C 72 % 1015,7 hPa 0,0 l/m 2 min 0 min 576 W/m 32,2 km/h (5 Bft) 100,00 %
11.03.2019 13:30 8,6 C 10,0 C 8,9 C 72 % 1015,7 hPa 0,0 l/m 2 min 0 min 343 W/m 32,2 km/h (5 Bft) 97,87 %
11.03.2019 13:32 8,5 C 8,9 C 8,3 C 72 % 1015,7 hPa 0,0 l/m 0 min 0 min 264 W/m 19,3 km/h (3 Bft) 100,00 %
11.03.2019 13:34 8,4 C 8,3 C 8,3 C 72 % 1015,7 hPa 0,0 l/m 0 min 0 min 218 W/m 19,3 km/h (3 Bft) 97,87 %
11.03.2019 13:36 8,3 C 8,3 C 7,8 C 72 % 1015,7 hPa 0,0 l/m 0 min 0 min 222 W/m 25,7 km/h (4 Bft) 97,87 %
11.03.2019 13:38 8,2 C 8,3 C 7,8 C 72 % 1015,8 hPa 0,0 l/m 0 min 0 min 162 W/m 22,5 km/h (4 Bft) 100,00 %
11.03.2019 13:40 8,1 C 7,8 C 7,2 C 71 % 1015,9 hPa 0,0 l/m 0 min 0 min 140 W/m 32,2 km/h (5 Bft) 100,00 %
11.03.2019 13:42 7,9 C 7,8 C 7,2 C 71 % 1015,8 hPa 0,0 l/m 0 min 0 min 201 W/m 32,2 km/h (5 Bft) 97,87 %
11.03.2019 13:44 7,9 C 7,8 C 7,2 C 72 % 1015,9 hPa 0,0 l/m 0 min 0 min 160 W/m 19,3 km/h (3 Bft) 97,87 %
11.03.2019 13:46 7,8 C 7,8 C 7,2 C 73 % 1015,8 hPa 0,0 l/m 0 min 0 min 144 W/m 25,7 km/h (4 Bft) 100,00 %
11.03.2019 13:48 7,7 C 7,2 C 6,7 C 72 % 1015,9 hPa 0,0 l/m 0 min 0 min 109 W/m 22,5 km/h (4 Bft) 97,87 %
11.03.2019 13:50 7,6 C 7,2 C 6,7 C 73 % 1015,9 hPa 0,0 l/m 0 min 0 min 110 W/m 22,5 km/h (4 Bft) 97,83 %
11.03.2019 13:52 7,5 C 6,7 C 6,7 C 73 % 1015,9 hPa 0,0 l/m 0 min 0 min 82 W/m 22,5 km/h (4 Bft) 97,87 %
11.03.2019 13:54 7,4 C 6,7 C 6,1 C 72 % 1016,0 hPa 0,0 l/m 0 min 2 min 65 W/m 32,2 km/h (5 Bft) 95,74 %
11.03.2019 13:56 7,3 C 6,1 C 5,6 C 72 % 1016,0 hPa 0,0 l/m 0 min 2 min 83 W/m 32,2 km/h (5 Bft) 100,00 %
11.03.2019 13:58 7,2 C 6,1 C 5,6 C 73 % 1016,1 hPa 0,0 l/m 0 min 2 min 157 W/m 29,0 km/h (5 Bft) 100,00 %
11.03.2019 14:00 7,1 C 6,7 C 5,6 C 74 % 1016,1 hPa 0,0 l/m 0 min 2 min 187 W/m 32,2 km/h (5 Bft) 100,00 %
11.03.2019 14:02 7,0 C 7,2 C 5,6 C 75 % 1016,1 hPa 0,0 l/m 0 min 0 min 200 W/m 29,0 km/h (5 Bft) 97,83 %
11.03.2019 14:04 7,0 C 7,8 C 6,1 C 75 % 1016,1 hPa 0,0 l/m 2 min 0 min 269 W/m 19,3 km/h (3 Bft) 97,37 %
11.03.2019 14:06 7,1 C 11,1 C 7,2 C 75 % 1016,0 hPa 0,0 l/m 2 min 0 min 330 W/m 22,5 km/h (4 Bft) 98,31 %
11.03.2019 14:08 7,2 C 12,2 C 7,8 C 75 % 1016,0 hPa 0,0 l/m 2 min 0 min 724 W/m 25,7 km/h (4 Bft) 94,29 %
11.03.2019 14:10 7,4 C 11,1 C 7,8 C 75 % 1016,1 hPa 0,0 l/m 2 min 0 min 742 W/m 32,2 km/h (5 Bft) 95,74 %
11.03.2019 14:12 7,4 C 8,9 C 7,2 C 74 % 1016,1 hPa 0,0 l/m 2 min 0 min 411 W/m 32,2 km/h (5 Bft) 91,49 %
11.03.2019 14:14 7,5 C 7,8 C 6,7 C 73 % 1016,2 hPa 0,0 l/m 0 min 2 min 118 W/m 38,6 km/h (5 Bft) 91,49 %
11.03.2019 14:16 7,5 C 7,2 C 6,1 C 74 % 1016,1 hPa 0,0 l/m 0 min 2 min 177 W/m 32,2 km/h (5 Bft) 95,65 %
11.03.2019 14:18 7,4 C 7,2 C 6,1 C 75 % 1016,3 hPa 0,0 l/m 0 min 2 min 254 W/m 48,3 km/h (6 Bft) 93,62 %
11.03.2019 14:20 7,4 C 7,8 C 6,7 C 75 % 1016,2 hPa 0,0 l/m 2 min 2 min 306 W/m 25,7 km/h (4 Bft) 93,62 %
11.03.2019 14:22 7,4 C 7,8 C 6,7 C 75 % 1016,3 hPa 0,0 l/m 0 min 2 min 233 W/m 38,6 km/h (5 Bft) 95,74 %
11.03.2019 14:24 7,4 C 10,0 C 7,2 C 75 % 1016,3 hPa 0,0 l/m 2 min 2 min 274 W/m 38,6 km/h (5 Bft) 93,62 %
11.03.2019 14:26 7,6 C 10,6 C 7,8 C 74 % 1016,4 hPa 0,0 l/m 2 min 2 min 589 W/m 38,6 km/h (5 Bft) 95,74 %
11.03.2019 14:28 7,7 C 11,7 C 7,8 C 73 % 1016,3 hPa 0,0 l/m 2 min 0 min 630 W/m 38,6 km/h (5 Bft) 93,48 %
11.03.2019 14:30 7,8 C 11,7 C 7,8 C 73 % 1016,4 hPa 0,0 l/m 2 min 0 min 631 W/m 35,4 km/h (5 Bft) 95,74 %
11.03.2019 14:32 7,9 C 11,1 C 7,8 C 72 % 1016,3 hPa 0,0 l/m 2 min 0 min 640 W/m 41,8 km/h (6 Bft) 91,67 %
11.03.2019 14:34 8,0 C 10,0 C 7,8 C 71 % 1016,4 hPa 0,0 l/m 2 min 0 min 640 W/m 32,2 km/h (5 Bft) 93,62 %
11.03.2019 14:36 8,0 C 9,4 C 7,8 C 70 % 1016,5 hPa 0,0 l/m 0 min 0 min 228 W/m 35,4 km/h (5 Bft) 94,83 %
11.03.2019 14:38 8,0 C 8,3 C 7,2 C 70 % 1016,5 hPa 0,0 l/m 0 min 0 min 199 W/m 38,6 km/h (5 Bft) 94,29 %
11.03.2019 14:40 7,9 C 7,8 C 7,2 C 70 % 1016,4 hPa 0,0 l/m 0 min 0 min 153 W/m 29,0 km/h (5 Bft) 93,62 %
11.03.2019 14:42 7,9 C 8,3 C 7,2 C 70 % 1016,6 hPa 0,0 l/m 0 min 0 min 200 W/m 25,7 km/h (4 Bft) 95,74 %
11.03.2019 14:44 7,9 C 8,3 C 7,2 C 71 % 1016,6 hPa 0,0 l/m 0 min 0 min 187 W/m 29,0 km/h (5 Bft) 95,74 %
11.03.2019 14:46 7,9 C 8,3 C 7,2 C 71 % 1016,6 hPa 0,0 l/m 0 min 0 min 216 W/m 22,5 km/h (4 Bft) 95,74 %
11.03.2019 14:48 7,8 C 7,8 C 7,2 C 71 % 1016,7 hPa 0,0 l/m 0 min 0 min 187 W/m 41,8 km/h (6 Bft) 95,65 %
11.03.2019 14:50 7,8 C 7,8 C 7,2 C 70 % 1016,6 hPa 0,0 l/m 0 min 0 min 161 W/m 35,4 km/h (5 Bft) 93,62 %
11.03.2019 14:52 7,7 C 7,8 C 7,2 C 71 % 1016,8 hPa 0,0 l/m 0 min 0 min 127 W/m 22,5 km/h (4 Bft) 97,87 %
11.03.2019 14:54 7,7 C 7,2 C 7,2 C 71 % 1016,7 hPa 0,0 l/m 0 min 0 min 143 W/m 29,0 km/h (5 Bft) 97,87 %
11.03.2019 14:56 7,7 C 7,2 C 7,2 C 70 % 1016,7 hPa 0,0 l/m 0 min 0 min 156 W/m 29,0 km/h (5 Bft) 97,87 %
11.03.2019 14:58 7,6 C 7,2 C 7,2 C 71 % 1016,8 hPa 0,0 l/m 0 min 0 min 160 W/m 22,5 km/h (4 Bft) 97,87 %
11.03.2019 15:00 7,6 C 7,8 C 7,2 C 71 % 1016,8 hPa 0,0 l/m 0 min 0 min 225 W/m 22,5 km/h (4 Bft) 97,83 %
11.03.2019 15:02 7,7 C 9,4 C 7,8 C 72 % 1016,9 hPa 0,0 l/m 2 min 0 min 258 W/m 22,5 km/h (4 Bft) 93,62 %
11.03.2019 15:04 7,7 C 10,6 C 7,8 C 72 % 1016,8 hPa 0,0 l/m 2 min 0 min 258 W/m 32,2 km/h (5 Bft) 93,62 %
11.03.2019 15:06 7,8 C 10,0 C 7,8 C 71 % 1016,7 hPa 0,0 l/m 2 min 0 min 286 W/m 32,2 km/h (5 Bft) 94,92 %
11.03.2019 15:08 7,9 C 8,9 C 7,8 C 71 % 1016,7 hPa 0,0 l/m 0 min 0 min 225 W/m 35,4 km/h (5 Bft) 97,14 %
11.03.2019 15:10 7,9 C 7,8 C 7,2 C 70 % 1016,8 hPa 0,0 l/m 0 min 0 min 163 W/m 29,0 km/h (5 Bft) 93,62 %
11.03.2019 15:12 7,8 C 7,8 C 7,2 C 70 % 1016,8 hPa 0,0 l/m 0 min 0 min 105 W/m 25,7 km/h (4 Bft) 95,65 %
11.03.2019 15:14 7,8 C 7,2 C 7,2 C 71 % 1016,9 hPa 0,0 l/m 0 min 0 min 89 W/m 25,7 km/h (4 Bft) 95,74 %
11.03.2019 15:16 7,8 C 7,2 C 6,7 C 71 % 1016,9 hPa 0,0 l/m 0 min 0 min 111 W/m 32,2 km/h (5 Bft) 95,74 %
11.03.2019 15:18 7,7 C 7,8 C 7,2 C 71 % 1016,8 hPa 0,0 l/m 0 min 0 min 183 W/m 25,7 km/h (4 Bft) 95,74 %
11.03.2019 15:20 7,7 C 7,8 C 7,2 C 71 % 1016,9 hPa 0,0 l/m 0 min 0 min 179 W/m 22,5 km/h (4 Bft) 91,49 %
11.03.2019 15:22 7,7 C 7,8 C 7,2 C 72 % 1017,0 hPa 0,0 l/m 0 min 0 min 127 W/m 32,2 km/h (5 Bft) 97,83 %
11.03.2019 15:24 7,7 C 7,8 C 7,2 C 71 % 1017,1 hPa 0,0 l/m 0 min 0 min 166 W/m 41,8 km/h (6 Bft) 97,87 %
11.03.2019 15:26 7,6 C 7,8 C 7,2 C 71 % 1017,0 hPa 0,0 l/m 0 min 0 min 150 W/m 38,6 km/h (5 Bft) 97,87 %
11.03.2019 15:28 7,6 C 7,8 C 6,7 C 72 % 1017,0 hPa 0,0 l/m 0 min 0 min 106 W/m 29,0 km/h (5 Bft) 97,87 %
11.03.2019 15:30 7,6 C 7,2 C 6,7 C 72 % 1017,1 hPa 0,0 l/m 0 min 0 min 100 W/m 41,8 km/h (6 Bft) 97,87 %
11.03.2019 15:32 7,5 C 7,2 C 6,7 C 72 % 1017,1 hPa 0,0 l/m 0 min 0 min 100 W/m 25,7 km/h (4 Bft) 95,74 %
11.03.2019 15:34 7,4 C 7,2 C 6,7 C 72 % 1017,1 hPa 0,0 l/m 0 min 0 min 106 W/m 32,2 km/h (5 Bft) 95,74 %
11.03.2019 15:36 7,4 C 7,2 C 6,7 C 73 % 1017,2 hPa 0,0 l/m 0 min 2 min 103 W/m 25,7 km/h (4 Bft) 97,83 %
11.03.2019 15:38 7,4 C 7,2 C 6,7 C 73 % 1017,2 hPa 0,0 l/m 0 min 0 min 107 W/m 22,5 km/h (4 Bft) 95,74 %
11.03.2019 15:40 7,4 C 7,2 C 6,7 C 73 % 1017,2 hPa 0,0 l/m 0 min 0 min 89 W/m 22,5 km/h (4 Bft) 97,87 %
11.03.2019 15:42 7,3 C 7,2 C 6,7 C 73 % 1017,1 hPa 0,0 l/m 0 min 0 min 99 W/m 22,5 km/h (4 Bft) 97,87 %
11.03.2019 15:44 7,3 C 7,2 C 6,7 C 73 % 1017,2 hPa 0,0 l/m 0 min 0 min 121 W/m 32,2 km/h (5 Bft) 97,87 %
11.03.2019 15:46 7,4 C 7,8 C 7,2 C 73 % 1017,1 hPa 0,0 l/m 0 min 0 min 189 W/m 35,4 km/h (5 Bft) 97,83 %
11.03.2019 15:48 7,4 C 8,9 C 7,2 C 73 % 1017,1 hPa 0,0 l/m 2 min 0 min 347 W/m 32,2 km/h (5 Bft) 93,62 %
11.03.2019 15:50 7,5 C 8,3 C 7,2 C 73 % 1017,3 hPa 0,0 l/m 2 min 0 min 255 W/m 41,8 km/h (6 Bft) 97,87 %
11.03.2019 15:52 7,6 C 8,3 C 7,2 C 73 % 1017,5 hPa 0,0 l/m 2 min 0 min 238 W/m 38,6 km/h (5 Bft) 97,87 %
11.03.2019 15:54 7,6 C 7,8 C 7,2 C 73 % 1017,3 hPa 0,0 l/m 2 min 0 min 217 W/m 29,0 km/h (5 Bft) 97,87 %
11.03.2019 15:56 7,6 C 7,8 C 7,2 C 73 % 1017,4 hPa 0,0 l/m 0 min 0 min 174 W/m 35,4 km/h (5 Bft) 100,00 %
11.03.2019 15:58 7,5 C 7,2 C 6,7 C 73 % 1017,5 hPa 0,0 l/m 0 min 0 min 100 W/m 29,0 km/h (5 Bft) 100,00 %
11.03.2019 16:00 7,5 C 7,2 C 6,7 C 73 % 1017,6 hPa 0,0 l/m 0 min 2 min 109 W/m 29,0 km/h (5 Bft) 100,00 %
11.03.2019 16:02 7,4 C 7,2 C 6,1 C 74 % 1017,5 hPa 0,0 l/m 0 min 2 min 124 W/m 22,5 km/h (4 Bft) 95,74 %
11.03.2019 16:04 7,4 C 7,2 C 6,1 C 75 % 1017,7 hPa 0,0 l/m 0 min 2 min 148 W/m 22,5 km/h (4 Bft) 97,87 %
11.03.2019 16:06 7,4 C 7,2 C 6,1 C 76 % 1017,4 hPa 0,0 l/m 0 min 2 min 118 W/m 22,5 km/h (4 Bft) 100,00 %
11.03.2019 16:08 7,3 C 6,7 C 6,1 C 76 % 1017,5 hPa 0,0 l/m 0 min 2 min 91 W/m 32,2 km/h (5 Bft) 100,00 %
11.03.2019 16:10 7,3 C 6,7 C 6,1 C 75 % 1017,5 hPa 0,0 l/m 0 min 0 min 59 W/m 19,3 km/h (3 Bft) 100,00 %
11.03.2019 16:12 7,2 C 6,7 C 6,1 C 75 % 1017,6 hPa 0,0 l/m 0 min 0 min 47 W/m 25,7 km/h (4 Bft) 97,87 %
11.03.2019 16:14 7,2 C 6,7 C 5,6 C 75 % 1017,6 hPa 0,0 l/m 0 min 2 min 42 W/m 32,2 km/h (5 Bft) 100,00 %
11.03.2019 16:16 7,2 C 6,7 C 6,1 C 75 % 1017,7 hPa 0,0 l/m 0 min 2 min 120 W/m 41,8 km/h (6 Bft) 100,00 %
11.03.2019 16:18 7,1 C 6,7 C 6,1 C 75 % 1017,7 hPa 0,0 l/m 0 min 2 min 116 W/m 45,1 km/h (6 Bft) 100,00 %
11.03.2019 16:20 7,1 C 6,7 C 6,1 C 75 % 1017,6 hPa 0,0 l/m 0 min 2 min 63 W/m 54,7 km/h (7 Bft) 100,00 %
11.03.2019 16:22 6,9 C 6,7 C 6,1 C 74 % 1017,6 hPa 0,0 l/m 0 min 2 min 64 W/m 38,6 km/h (5 Bft) 100,00 %
11.03.2019 16:24 6,9 C 6,7 C 5,6 C 75 % 1017,7 hPa 0,0 l/m 0 min 0 min 59 W/m 45,1 km/h (6 Bft) 100,00 %
11.03.2019 16:26 6,8 C 6,1 C 5,6 C 75 % 1017,6 hPa 0,0 l/m 0 min 0 min 41 W/m 22,5 km/h (4 Bft) 95,74 %
11.03.2019 16:28 6,8 C 7,2 C 6,1 C 75 % 1017,7 hPa 0,0 l/m 0 min 0 min 51 W/m 19,3 km/h (3 Bft) 100,00 %
11.03.2019 16:30 6,8 C 7,2 C 6,7 C 76 % 1017,6 hPa 0,0 l/m 0 min 0 min 94 W/m 22,5 km/h (4 Bft) 100,00 %
11.03.2019 16:32 6,9 C 7,8 C 6,7 C 76 % 1017,6 hPa 0,0 l/m 0 min 0 min 128 W/m 16,1 km/h (3 Bft) 100,00 %
11.03.2019 16:34 6,9 C 8,9 C 7,8 C 75 % 1017,6 hPa 0,0 l/m 2 min 0 min 280 W/m 45,1 km/h (6 Bft) 95,74 %
11.03.2019 16:36 7,1 C 10,0 C 8,3 C 75 % 1017,6 hPa 0,0 l/m 2 min 0 min 384 W/m 29,0 km/h (5 Bft) 95,74 %
11.03.2019 16:38 7,3 C 10,0 C 8,3 C 75 % 1017,5 hPa 0,0 l/m 2 min 0 min 359 W/m 32,2 km/h (5 Bft) 87,23 %
11.03.2019 16:40 7,5 C 10,0 C 7,8 C 75 % 1017,5 hPa 0,0 l/m 2 min 0 min 328 W/m 48,3 km/h (6 Bft) 95,74 %
11.03.2019 16:42 7,6 C 9,4 C 7,2 C 72 % 1017,5 hPa 0,0 l/m 2 min 0 min 276 W/m 38,6 km/h (5 Bft) 97,87 %
11.03.2019 16:44 7,7 C 9,4 C 7,2 C 72 % 1017,5 hPa 0,0 l/m 2 min 0 min 263 W/m 35,4 km/h (5 Bft) 97,87 %
11.03.2019 16:46 7,7 C 9,4 C 6,7 C 72 % 1017,5 hPa 0,0 l/m 2 min 0 min 264 W/m 25,7 km/h (4 Bft) 95,65 %
11.03.2019 16:48 7,7 C 8,9 C 6,7 C 72 % 1017,5 hPa 0,0 l/m 2 min 0 min 285 W/m 35,4 km/h (5 Bft) 97,87 %
11.03.2019 16:50 7,8 C 9,4 C 6,7 C 71 % 1017,6 hPa 0,0 l/m 2 min 0 min 283 W/m 32,2 km/h (5 Bft) 97,87 %
11.03.2019 16:52 7,8 C 8,9 C 6,7 C 71 % 1017,6 hPa 0,0 l/m 2 min 0 min 262 W/m 38,6 km/h (5 Bft) 95,74 %
11.03.2019 16:54 7,8 C 9,4 C 7,2 C 71 % 1017,6 hPa 0,0 l/m 2 min 0 min 270 W/m 29,0 km/h (5 Bft) 97,87 %
11.03.2019 16:56 7,8 C 9,4 C 7,2 C 72 % 1017,6 hPa 0,0 l/m 2 min 0 min 278 W/m 45,1 km/h (6 Bft) 97,83 %
11.03.2019 16:58 7,8 C 8,3 C 6,7 C 71 % 1017,6 hPa 0,0 l/m 2 min 0 min 212 W/m 70,8 km/h (8 Bft) 97,87 %
11.03.2019 17:00 7,8 C 7,8 C 6,7 C 71 % 1017,6 hPa 0,0 l/m 0 min 0 min 93 W/m 45,1 km/h (6 Bft) 97,87 %
11.03.2019 17:02 7,7 C 7,2 C 6,7 C 70 % 1017,8 hPa 0,0 l/m 0 min 0 min 69 W/m 41,8 km/h (6 Bft) 97,87 %
11.03.2019 17:04 7,7 C 7,2 C 6,7 C 71 % 1017,7 hPa 0,0 l/m 0 min 0 min 77 W/m 32,2 km/h (5 Bft) 89,36 %
11.03.2019 17:06 7,6 C 7,2 C 6,7 C 71 % 1017,7 hPa 0,0 l/m 0 min 0 min 89 W/m 45,1 km/h (6 Bft) 97,87 %
11.03.2019 17:08 7,6 C 7,2 C 6,7 C 71 % 1017,8 hPa 0,0 l/m 0 min 0 min 76 W/m 25,7 km/h (4 Bft) 97,83 %
11.03.2019 17:10 7,6 C 7,2 C 6,7 C 71 % 1017,8 hPa 0,0 l/m 0 min 0 min 78 W/m 38,6 km/h (5 Bft) 95,74 %
11.03.2019 17:12 7,5 C 7,2 C 6,7 C 71 % 1017,8 hPa 0,0 l/m 2 min 0 min 101 W/m 38,6 km/h (5 Bft) 91,49 %
11.03.2019 17:14 7,5 C 7,2 C 6,7 C 71 % 1017,7 hPa 0,0 l/m 2 min 0 min 126 W/m 51,5 km/h (7 Bft) 97,87 %
11.03.2019 17:16 7,5 C 7,2 C 6,7 C 71 % 1017,9 hPa 0,0 l/m 2 min 0 min 137 W/m 32,2 km/h (5 Bft) 97,83 %
11.03.2019 17:18 7,5 C 7,2 C 6,7 C 72 % 1017,9 hPa 0,0 l/m 2 min 0 min 126 W/m 25,7 km/h (4 Bft) 95,74 %
11.03.2019 17:20 7,5 C 7,2 C 6,7 C 72 % 1017,9 hPa 0,0 l/m 2 min 0 min 118 W/m 29,0 km/h (5 Bft) 97,87 %
11.03.2019 17:22 7,5 C 7,2 C 6,7 C 71 % 1018,0 hPa 0,0 l/m 2 min 0 min 138 W/m 48,3 km/h (6 Bft) 97,87 %
11.03.2019 17:24 7,5 C 7,2 C 6,7 C 72 % 1017,9 hPa 0,0 l/m 2 min 0 min 133 W/m 32,2 km/h (5 Bft) 97,87 %
11.03.2019 17:26 7,5 C 7,2 C 6,7 C 72 % 1018,1 hPa 0,0 l/m 2 min 0 min 116 W/m 29,0 km/h (5 Bft) 93,62 %
11.03.2019 17:28 7,5 C 7,2 C 6,7 C 71 % 1018,1 hPa 0,0 l/m 2 min 0 min 84 W/m 29,0 km/h (5 Bft) 97,87 %
11.03.2019 17:30 7,4 C 7,2 C 6,7 C 71 % 1018,1 hPa 0,0 l/m 2 min 0 min 81 W/m 45,1 km/h (6 Bft) 100,00 %
11.03.2019 17:32 7,4 C 7,2 C 6,7 C 71 % 1018,2 hPa 0,0 l/m 2 min 0 min 82 W/m 51,5 km/h (7 Bft) 100,00 %
11.03.2019 17:34 7,4 C 6,7 C 6,1 C 71 % 1018,1 hPa 0,0 l/m 0 min 0 min 57 W/m 35,4 km/h (5 Bft) 93,62 %
11.03.2019 17:36 7,3 C 6,7 C 6,1 C 71 % 1018,3 hPa 0,0 l/m 0 min 0 min 41 W/m 35,4 km/h (5 Bft) 95,74 %
11.03.2019 17:38 7,3 C 6,7 C 6,1 C 72 % 1018,4 hPa 0,0 l/m 0 min 0 min 37 W/m 32,2 km/h (5 Bft) 97,87 %
11.03.2019 17:40 7,2 C 6,7 C 6,1 C 72 % 1018,4 hPa 0,0 l/m 0 min 0 min 26 W/m 25,7 km/h (4 Bft) 100,00 %
11.03.2019 17:42 7,2 C 6,7 C 6,1 C 72 % 1018,4 hPa 0,0 l/m 0 min 0 min 19 W/m 38,6 km/h (5 Bft) 97,87 %
11.03.2019 17:44 7,1 C 6,7 C 6,1 C 72 % 1018,5 hPa 0,0 l/m 0 min 0 min 18 W/m 41,8 km/h (6 Bft) 95,74 %
11.03.2019 17:46 7,1 C 6,7 C 6,1 C 72 % 1018,6 hPa 0,0 l/m 0 min 0 min 19 W/m 32,2 km/h (5 Bft) 91,30 %
11.03.2019 17:48 7,1 C 6,7 C 6,1 C 72 % 1018,6 hPa 0,0 l/m 0 min 0 min 21 W/m 29,0 km/h (5 Bft) 89,36 %
11.03.2019 17:50 7,1 C 6,7 C 6,1 C 72 % 1018,6 hPa 0,0 l/m 0 min 0 min 14 W/m 41,8 km/h (6 Bft) 97,87 %
11.03.2019 17:52 7,0 C 6,7 C 6,1 C 72 % 1018,6 hPa 0,0 l/m 0 min 0 min 13 W/m 38,6 km/h (5 Bft) 97,87 %
11.03.2019 17:54 7,0 C 6,7 C 6,1 C 72 % 1018,6 hPa 0,0 l/m 0 min 0 min 22 W/m 38,6 km/h (5 Bft) 95,74 %
11.03.2019 17:56 7,0 C 6,7 C 6,1 C 72 % 1018,8 hPa 0,0 l/m 0 min 0 min 26 W/m 38,6 km/h (5 Bft) 97,83 %
11.03.2019 17:58 7,0 C 6,7 C 6,1 C 72 % 1018,7 hPa 0,0 l/m 0 min 0 min 27 W/m 51,5 km/h (7 Bft) 97,87 %
11.03.2019 18:00 6,9 C 6,7 C 6,1 C 72 % 1018,7 hPa 0,0 l/m 0 min 0 min 26 W/m 38,6 km/h (5 Bft) 97,87 %
11.03.2019 18:02 6,9 C 6,7 C 6,1 C 71 % 1018,7 hPa 0,0 l/m 0 min 0 min 31 W/m 38,6 km/h (5 Bft) 97,87 %
11.03.2019 18:04 6,9 C 6,7 C 6,1 C 72 % 1018,8 hPa 0,0 l/m 0 min 0 min 29 W/m 29,0 km/h (5 Bft) 95,74 %
11.03.2019 18:07 6,9 C 6,1 C 5,6 C 72 % 1018,9 hPa 0,0 l/m 0 min 0 min 16 W/m 41,8 km/h (6 Bft) 97,14 %
11.03.2019 18:08 6,9 C 6,1 C 5,6 C 72 % 1018,9 hPa 0,0 l/m 0 min 0 min 12 W/m 32,2 km/h (5 Bft) 91,30 %
11.03.2019 18:10 6,9 C 6,1 C 5,6 C 72 % 1019,0 hPa 0,0 l/m 0 min 0 min 13 W/m 35,4 km/h (5 Bft) 95,74 %
11.03.2019 18:12 6,9 C 6,1 C 5,6 C 72 % 1019,0 hPa 0,0 l/m 0 min 0 min 14 W/m 32,2 km/h (5 Bft) 95,74 %
11.03.2019 18:14 6,9 C 6,1 C 5,6 C 72 % 1019,0 hPa 0,0 l/m 0 min 0 min 12 W/m 29,0 km/h (5 Bft) 95,74 %
11.03.2019 18:16 6,8 C 6,1 C 5,6 C 72 % 1019,1 hPa 0,0 l/m 0 min 0 min 14 W/m 32,2 km/h (5 Bft) 95,74 %
11.03.2019 18:18 6,8 C 6,1 C 5,6 C 72 % 1019,1 hPa 0,0 l/m 0 min 0 min 16 W/m 32,2 km/h (5 Bft) 95,74 %
11.03.2019 18:20 6,8 C 6,1 C 5,6 C 73 % 1019,1 hPa 0,0 l/m 0 min 0 min 11 W/m 25,7 km/h (4 Bft) 95,65 %
11.03.2019 18:22 6,8 C 6,1 C 5,6 C 73 % 1019,1 hPa 0,0 l/m 0 min 0 min 11 W/m 35,4 km/h (5 Bft) 95,74 %
11.03.2019 18:24 6,8 C 6,1 C 5,6 C 73 % 1019,2 hPa 0,0 l/m 0 min 0 min 11 W/m 25,7 km/h (4 Bft) 95,74 %
11.03.2019 18:26 6,8 C 6,1 C 5,6 C 73 % 1019,2 hPa 0,0 l/m 0 min 0 min 8 W/m 35,4 km/h (5 Bft) 93,62 %
11.03.2019 18:28 6,7 C 6,1 C 5,6 C 72 % 1019,3 hPa 0,0 l/m 0 min 0 min 6 W/m 41,8 km/h (6 Bft) 95,74 %
11.03.2019 18:30 6,7 C 6,1 C 5,6 C 72 % 1019,4 hPa 0,0 l/m 0 min 0 min 5 W/m 32,2 km/h (5 Bft) 97,87 %
11.03.2019 18:32 6,7 C 6,1 C 5,6 C 73 % 1019,5 hPa 0,0 l/m 0 min 0 min 1 W/m 45,1 km/h (6 Bft) 97,83 %
11.03.2019 18:34 6,7 C 6,1 C 5,6 C 73 % 1019,5 hPa 0,0 l/m 0 min 0 min 0 W/m 48,3 km/h (6 Bft) 96,00 %
11.03.2019 18:36 6,6 C 6,1 C 5,6 C 73 % 1019,6 hPa 0,0 l/m 0 min 0 min 0 W/m 45,1 km/h (6 Bft) 100,00 %
11.03.2019 18:38 6,6 C 5,6 C 5,6 C 73 % 1019,6 hPa 0,0 l/m 0 min 0 min 0 W/m 35,4 km/h (5 Bft) 98,36 %
11.03.2019 18:40 6,6 C 5,6 C 5,0 C 73 % 1019,6 hPa 0,0 l/m 0 min 0 min 0 W/m 32,2 km/h (5 Bft) 95,83 %
11.03.2019 18:42 6,5 C 5,6 C 5,0 C 73 % 1019,7 hPa 0,0 l/m 0 min 0 min 0 W/m 22,5 km/h (4 Bft) 91,30 %
11.03.2019 18:44 6,4 C 5,6 C 5,0 C 73 % 1019,8 hPa 0,0 l/m 0 min 0 min 0 W/m 25,7 km/h (4 Bft) 95,74 %
11.03.2019 18:46 6,4 C 5,6 C 5,0 C 73 % 1019,8 hPa 0,0 l/m 0 min 0 min 0 W/m 29,0 km/h (5 Bft) 93,62 %
11.03.2019 18:48 6,4 C 5,6 C 5,0 C 74 % 1019,9 hPa 0,0 l/m 0 min 0 min 0 W/m 32,2 km/h (5 Bft) 97,87 %
11.03.2019 18:50 6,4 C 5,6 C 5,0 C 74 % 1020,2 hPa 0,0 l/m 0 min 0 min 0 W/m 35,4 km/h (5 Bft) 97,87 %
11.03.2019 18:52 6,4 C 5,6 C 5,0 C 74 % 1020,1 hPa 0,0 l/m 0 min 0 min 0 W/m 41,8 km/h (6 Bft) 95,74 %
11.03.2019 18:54 6,4 C 5,6 C 5,0 C 74 % 1020,0 hPa 0,0 l/m 0 min 0 min 0 W/m 19,3 km/h (3 Bft) 97,83 %
11.03.2019 18:56 6,4 C 5,6 C 5,0 C 75 % 1020,2 hPa 0,0 l/m 0 min 0 min 0 W/m 25,7 km/h (4 Bft) 97,87 %
11.03.2019 18:58 6,4 C 5,6 C 5,0 C 75 % 1020,2 hPa 0,0 l/m 0 min 0 min 0 W/m 19,3 km/h (3 Bft) 95,74 %
11.03.2019 19:00 6,4 C 5,6 C 5,0 C 75 % 1020,3 hPa 0,0 l/m 0 min 2 min 0 W/m 35,4 km/h (5 Bft) 97,87 %
11.03.2019 19:02 6,3 C 5,6 C 5,0 C 75 % 1020,4 hPa 0,0 l/m 0 min 0 min 0 W/m 41,8 km/h (6 Bft) 95,74 %
11.03.2019 19:04 6,3 C 5,6 C 5,0 C 75 % 1020,4 hPa 0,0 l/m 0 min 0 min 0 W/m 22,5 km/h (4 Bft) 97,83 %
11.03.2019 19:06 6,3 C 5,6 C 5,0 C 75 % 1020,5 hPa 0,0 l/m 0 min 0 min 0 W/m 25,7 km/h (4 Bft) 95,74 %
11.03.2019 19:08 6,3 C 5,6 C 5,0 C 75 % 1020,5 hPa 0,0 l/m 0 min 0 min 0 W/m 32,2 km/h (5 Bft) 91,49 %
11.03.2019 19:10 6,3 C 5,6 C 5,0 C 76 % 1020,5 hPa 0,0 l/m 0 min 0 min 0 W/m 19,3 km/h (3 Bft) 100,00 %
11.03.2019 19:12 6,3 C 5,6 C 5,0 C 76 % 1020,4 hPa 0,0 l/m 0 min 0 min 0 W/m 25,7 km/h (4 Bft) 100,00 %
11.03.2019 19:14 6,3 C 5,6 C 5,0 C 76 % 1020,5 hPa 0,0 l/m 0 min 0 min 0 W/m 19,3 km/h (3 Bft) 97,87 %
11.03.2019 19:16 6,2 C 5,6 C 5,0 C 76 % 1020,6 hPa 0,0 l/m 0 min 0 min 0 W/m 25,7 km/h (4 Bft) 93,48 %
11.03.2019 19:18 6,2 C 5,6 C 5,0 C 75 % 1020,6 hPa 0,0 l/m 0 min 0 min 0 W/m 22,5 km/h (4 Bft) 93,62 %
11.03.2019 19:20 6,2 C 5,6 C 5,0 C 76 % 1020,5 hPa 0,0 l/m 0 min 0 min 0 W/m 22,5 km/h (4 Bft) 100,00 %
11.03.2019 19:22 6,2 C 5,6 C 5,0 C 76 % 1020,5 hPa 0,0 l/m 0 min 0 min 0 W/m 22,5 km/h (4 Bft) 97,87 %
11.03.2019 19:24 6,2 C 5,6 C 5,0 C 76 % 1020,7 hPa 0,0 l/m 0 min 0 min 0 W/m 25,7 km/h (4 Bft) 97,87 %
11.03.2019 19:26 6,2 C 5,6 C 5,0 C 76 % 1020,6 hPa 0,0 l/m 0 min 0 min 0 W/m 22,5 km/h (4 Bft) 97,87 %
11.03.2019 19:28 6,2 C 5,6 C 5,0 C 75 % 1020,6 hPa 0,0 l/m 0 min 0 min 0 W/m 25,7 km/h (4 Bft) 95,65 %
11.03.2019 19:30 6,1 C 5,6 C 5,0 C 76 % 1020,6 hPa 0,0 l/m 0 min 0 min 0 W/m 22,5 km/h (4 Bft) 95,74 %
11.03.2019 19:32 6,1 C 5,6 C 5,0 C 76 % 1020,6 hPa 0,0 l/m 0 min 0 min 0 W/m 45,1 km/h (6 Bft) 97,87 %
11.03.2019 19:34 6,1 C 5,6 C 5,0 C 76 % 1020,6 hPa 0,0 l/m 0 min 0 min 0 W/m 19,3 km/h (3 Bft) 97,87 %
11.03.2019 19:36 6,1 C 5,0 C 4,4 C 76 % 1020,8 hPa 0,0 l/m 0 min 0 min 0 W/m 29,0 km/h (5 Bft) 97,87 %
11.03.2019 19:38 6,0 C 5,0 C 4,4 C 76 % 1020,9 hPa 0,0 l/m 0 min 0 min 0 W/m 29,0 km/h (5 Bft) 97,87 %
11.03.2019 19:40 6,0 C 5,6 C 5,0 C 76 % 1020,9 hPa 0,0 l/m 0 min 0 min 0 W/m 29,0 km/h (5 Bft) 97,83 %
11.03.2019 19:42 6,0 C 5,6 C 5,0 C 76 % 1020,9 hPa 0,0 l/m 0 min 0 min 0 W/m 32,2 km/h (5 Bft) 95,74 %
11.03.2019 19:44 6,0 C 5,6 C 5,0 C 77 % 1020,9 hPa 0,0 l/m 0 min 2 min 0 W/m 32,2 km/h (5 Bft) 97,87 %
11.03.2019 19:46 6,0 C 5,6 C 5,0 C 77 % 1020,9 hPa 0,0 l/m 0 min 2 min 0 W/m 22,5 km/h (4 Bft) 95,74 %
11.03.2019 19:48 6,0 C 5,6 C 5,0 C 77 % 1021,0 hPa 0,0 l/m 0 min 0 min 0 W/m 22,5 km/h (4 Bft) 98,00 %
11.03.2019 19:50 6,0 C 5,6 C 5,0 C 77 % 1021,0 hPa 0,0 l/m 0 min 0 min 0 W/m 25,7 km/h (4 Bft) 97,83 %
11.03.2019 19:52 6,0 C 5,6 C 5,0 C 77 % 1021,0 hPa 0,0 l/m 0 min 0 min 0 W/m 22,5 km/h (4 Bft) 97,87 %
11.03.2019 19:54 6,0 C 5,6 C 5,0 C 77 % 1021,1 hPa 0,0 l/m 0 min 0 min 0 W/m 22,5 km/h (4 Bft) 97,87 %
11.03.2019 19:56 6,0 C 5,6 C 5,0 C 77 % 1021,1 hPa 0,0 l/m 0 min 0 min 0 W/m 25,7 km/h (4 Bft) 97,87 %
11.03.2019 19:58 6,0 C 5,6 C 5,0 C 77 % 1021,1 hPa 0,0 l/m 0 min 0 min 0 W/m 19,3 km/h (3 Bft) 97,87 %
11.03.2019 20:00 6,0 C 5,6 C 5,0 C 77 % 1021,1 hPa 0,0 l/m 0 min 0 min 0 W/m 19,3 km/h (3 Bft) 97,87 %
11.03.2019 20:02 6,0 C 5,6 C 5,0 C 77 % 1021,1 hPa 0,0 l/m 0 min 0 min 0 W/m 35,4 km/h (5 Bft) 91,30 %
11.03.2019 20:04 6,0 C 5,6 C 5,0 C 77 % 1021,1 hPa 0,0 l/m 0 min 0 min 0 W/m 25,7 km/h (4 Bft) 95,74 %
11.03.2019 20:06 6,0 C 5,6 C 5,0 C 77 % 1021,3 hPa 0,0 l/m 0 min 0 min 0 W/m 25,7 km/h (4 Bft) 97,87 %
11.03.2019 20:08 6,0 C 5,6 C 5,0 C 77 % 1021,2 hPa 0,0 l/m 0 min 0 min 0 W/m 29,0 km/h (5 Bft) 97,87 %
11.03.2019 20:10 5,9 C 5,6 C 5,0 C 77 % 1021,2 hPa 0,0 l/m 0 min 0 min 0 W/m 32,2 km/h (5 Bft) 97,87 %
11.03.2019 20:12 6,0 C 5,6 C 5,0 C 77 % 1021,4 hPa 0,0 l/m 0 min 0 min 0 W/m 32,2 km/h (5 Bft) 97,87 %
11.03.2019 20:14 5,9 C 5,6 C 5,0 C 77 % 1021,4 hPa 0,0 l/m 0 min 0 min 0 W/m 32,2 km/h (5 Bft) 95,65 %
11.03.2019 20:16 5,9 C 5,6 C 5,0 C 77 % 1021,3 hPa 0,0 l/m 0 min 0 min 0 W/m 25,7 km/h (4 Bft) 97,87 %
11.03.2019 20:18 5,9 C 5,6 C 5,0 C 77 % 1021,4 hPa 0,0 l/m 0 min 0 min 0 W/m 29,0 km/h (5 Bft) 100,00 %
11.03.2019 20:20 5,9 C 5,6 C 5,0 C 77 % 1021,4 hPa 0,0 l/m 0 min 0 min 0 W/m 19,3 km/h (3 Bft) 95,74 %
11.03.2019 20:22 5,9 C 5,6 C 5,0 C 77 % 1021,4 hPa 0,0 l/m 0 min 0 min 0 W/m 25,7 km/h (4 Bft) 95,74 %
11.03.2019 20:24 5,9 C 5,6 C 5,0 C 77 % 1021,4 hPa 0,0 l/m 0 min 0 min 0 W/m 35,4 km/h (5 Bft) 95,74 %
11.03.2019 20:26 5,9 C 5,0 C 4,4 C 77 % 1021,5 hPa 0,0 l/m 0 min 0 min 0 W/m 25,7 km/h (4 Bft) 97,83 %
11.03.2019 20:28 5,9 C 5,0 C 4,4 C 77 % 1021,5 hPa 0,0 l/m 0 min 0 min 0 W/m 35,4 km/h (5 Bft) 97,87 %
11.03.2019 20:30 5,9 C 5,0 C 4,4 C 78 % 1021,6 hPa 0,0 l/m 0 min 0 min 0 W/m 29,0 km/h (5 Bft) 97,87 %
11.03.2019 20:32 5,9 C 5,0 C 4,4 C 78 % 1021,6 hPa 0,0 l/m 0 min 0 min 0 W/m 16,1 km/h (3 Bft) 97,87 %
11.03.2019 20:34 5,9 C 5,0 C 4,4 C 78 % 1021,7 hPa 0,0 l/m 0 min 0 min 0 W/m 29,0 km/h (5 Bft) 97,87 %
11.03.2019 20:36 5,8 C 5,0 C 4,4 C 78 % 1021,7 hPa 0,0 l/m 0 min 0 min 0 W/m 16,1 km/h (3 Bft) 95,74 %
11.03.2019 20:38 5,8 C 5,0 C 4,4 C 78 % 1021,7 hPa 0,0 l/m 0 min 0 min 0 W/m 19,3 km/h (3 Bft) 97,83 %
11.03.2019 20:40 5,8 C 5,0 C 4,4 C 78 % 1021,8 hPa 0,0 l/m 0 min 0 min 0 W/m 12,9 km/h (3 Bft) 95,74 %
11.03.2019 20:42 5,8 C 5,0 C 4,4 C 78 % 1021,9 hPa 0,0 l/m 0 min 0 min 0 W/m 22,5 km/h (4 Bft) 97,87 %
11.03.2019 20:44 5,7 C 5,0 C 4,4 C 78 % 1021,8 hPa 0,0 l/m 0 min 0 min 0 W/m 19,3 km/h (3 Bft) 89,36 %
11.03.2019 20:46 5,7 C 5,0 C 4,4 C 79 % 1021,8 hPa 0,0 l/m 0 min 0 min 0 W/m 16,1 km/h (3 Bft) 95,74 %
11.03.2019 20:48 5,6 C 4,4 C 4,4 C 79 % 1021,8 hPa 0,0 l/m 0 min 0 min 0 W/m 9,7 km/h (2 Bft) 95,65 %
11.03.2019 20:50 5,6 C 4,4 C 3,9 C 79 % 1021,9 hPa 0,0 l/m 0 min 0 min 0 W/m 12,9 km/h (3 Bft) 97,87 %
11.03.2019 20:52 5,6 C 4,4 C 3,9 C 79 % 1021,9 hPa 0,0 l/m 0 min 0 min 0 W/m 19,3 km/h (3 Bft) 95,74 %
11.03.2019 20:54 5,6 C 4,4 C 4,4 C 79 % 1021,9 hPa 0,0 l/m 0 min 0 min 0 W/m 16,1 km/h (3 Bft) 97,87 %
11.03.2019 20:56 5,5 C 4,4 C 4,4 C 79 % 1021,9 hPa 0,0 l/m 0 min 0 min 0 W/m 9,7 km/h (2 Bft) 97,87 %
11.03.2019 20:58 5,5 C 4,4 C 4,4 C 79 % 1022,0 hPa 0,0 l/m 0 min 0 min 0 W/m 6,4 km/h (2 Bft) 97,87 %
11.03.2019 21:00 5,5 C 4,4 C 3,9 C 79 % 1022,0 hPa 0,0 l/m 0 min 0 min 0 W/m 9,7 km/h (2 Bft) 100,00 %
11.03.2019 21:02 5,4 C 4,4 C 3,9 C 80 % 1021,9 hPa 0,0 l/m 0 min 0 min 0 W/m 9,7 km/h (2 Bft) 100,00 %
11.03.2019 21:04 5,4 C 4,4 C 3,9 C 80 % 1022,0 hPa 0,0 l/m 0 min 0 min 0 W/m 12,9 km/h (3 Bft) 100,00 %
11.03.2019 21:06 5,4 C 4,4 C 3,9 C 80 % 1022,1 hPa 0,0 l/m 0 min 0 min 0 W/m 16,1 km/h (3 Bft) 100,00 %
11.03.2019 21:08 5,4 C 4,4 C 3,9 C 80 % 1022,1 hPa 0,0 l/m 0 min 0 min 0 W/m 16,1 km/h (3 Bft) 100,00 %
11.03.2019 21:10 5,3 C 4,4 C 3,9 C 80 % 1022,1 hPa 0,0 l/m 0 min 0 min 0 W/m 9,7 km/h (2 Bft) 100,00 %
11.03.2019 21:12 5,3 C 4,4 C 3,9 C 80 % 1022,1 hPa 0,0 l/m 0 min 0 min 0 W/m 12,9 km/h (3 Bft) 97,83 %
11.03.2019 21:14 5,3 C 4,4 C 3,9 C 80 % 1022,1 hPa 0,0 l/m 0 min 0 min 0 W/m 9,7 km/h (2 Bft) 100,00 %
11.03.2019 21:16 5,2 C 4,4 C 3,9 C 80 % 1022,1 hPa 0,0 l/m 0 min 0 min 0 W/m 6,4 km/h (2 Bft) 100,00 %
11.03.2019 21:18 5,2 C 4,4 C 3,9 C 81 % 1022,2 hPa 0,0 l/m 0 min 0 min 0 W/m 12,9 km/h (3 Bft) 100,00 %
11.03.2019 21:20 5,2 C 4,4 C 3,9 C 80 % 1022,2 hPa 0,0 l/m 0 min 0 min 0 W/m 12,9 km/h (3 Bft) 100,00 %
11.03.2019 21:22 5,2 C 4,4 C 3,9 C 81 % 1022,3 hPa 0,0 l/m 0 min 0 min 0 W/m 9,7 km/h (2 Bft) 100,00 %
11.03.2019 21:24 5,1 C 4,4 C 3,9 C 81 % 1022,2 hPa 0,0 l/m 0 min 0 min 0 W/m 6,4 km/h (2 Bft) 100,00 %
11.03.2019 21:26 5,1 C 4,4 C 3,9 C 81 % 1022,4 hPa 0,0 l/m 0 min 0 min 0 W/m 9,7 km/h (2 Bft) 100,00 %
11.03.2019 21:28 5,1 C 4,4 C 3,9 C 81 % 1022,3 hPa 0,0 l/m 0 min 0 min 0 W/m 9,7 km/h (2 Bft) 100,00 %
11.03.2019 21:30 5,1 C 4,4 C 3,9 C 81 % 1022,3 hPa 0,0 l/m 0 min 0 min 0 W/m 9,7 km/h (2 Bft) 100,00 %
11.03.2019 21:32 5,1 C 4,4 C 3,9 C 81 % 1022,2 hPa 0,0 l/m 0 min 0 min 0 W/m 9,7 km/h (2 Bft) 100,00 %
11.03.2019 21:34 5,1 C 4,4 C 3,9 C 82 % 1022,4 hPa 0,0 l/m 0 min 0 min 0 W/m 12,9 km/h (3 Bft) 100,00 %
11.03.2019 21:36 5,0 C 4,4 C 3,9 C 82 % 1022,4 hPa 0,0 l/m 0 min 0 min 0 W/m 12,9 km/h (3 Bft) 100,00 %
11.03.2019 21:38 5,0 C 4,4 C 3,9 C 82 % 1022,3 hPa 0,0 l/m 0 min 0 min 0 W/m 9,7 km/h (2 Bft) 97,87 %
11.03.2019 21:40 5,0 C 3,9 C 3,9 C 82 % 1022,4 hPa 0,0 l/m 0 min 0 min 0 W/m 12,9 km/h (3 Bft) 100,00 %
11.03.2019 21:42 5,0 C 3,9 C 3,3 C 82 % 1022,4 hPa 0,0 l/m 0 min 0 min 0 W/m 12,9 km/h (3 Bft) 97,87 %
11.03.2019 21:44 4,9 C 3,9 C 3,3 C 82 % 1022,4 hPa 0,0 l/m 0 min 0 min 0 W/m 12,9 km/h (3 Bft) 100,00 %
11.03.2019 21:46 4,9 C 3,9 C 3,3 C 82 % 1022,4 hPa 0,0 l/m 0 min 0 min 0 W/m 12,9 km/h (3 Bft) 97,83 %
11.03.2019 21:48 4,9 C 3,9 C 3,3 C 82 % 1022,5 hPa 0,0 l/m 0 min 0 min 0 W/m 9,7 km/h (2 Bft) 97,87 %
11.03.2019 21:50 4,8 C 3,9 C 3,3 C 82 % 1022,5 hPa 0,0 l/m 0 min 0 min 0 W/m 16,1 km/h (3 Bft) 100,00 %
11.03.2019 21:52 4,8 C 3,9 C 3,3 C 82 % 1022,6 hPa 0,0 l/m 0 min 0 min 0 W/m 9,7 km/h (2 Bft) 100,00 %
11.03.2019 21:54 4,8 C 3,9 C 3,3 C 82 % 1022,6 hPa 0,0 l/m 0 min 0 min 0 W/m 12,9 km/h (3 Bft) 100,00 %
11.03.2019 21:56 4,7 C 3,9 C 3,3 C 82 % 1022,6 hPa 0,0 l/m 0 min 0 min 0 W/m 12,9 km/h (3 Bft) 100,00 %
11.03.2019 21:58 4,7 C 3,9 C 3,3 C 82 % 1022,5 hPa 0,0 l/m 0 min 0 min 0 W/m 12,9 km/h (3 Bft) 100,00 %
11.03.2019 22:00 4,7 C 3,9 C 3,3 C 82 % 1022,6 hPa 0,0 l/m 0 min 0 min 0 W/m 9,7 km/h (2 Bft) 100,00 %
11.03.2019 22:02 4,7 C 3,9 C 3,3 C 82 % 1022,6 hPa 0,0 l/m 0 min 0 min 0 W/m 12,9 km/h (3 Bft) 100,00 %
11.03.2019 22:04 4,6 C 3,9 C 3,3 C 82 % 1022,6 hPa 0,0 l/m 0 min 0 min 0 W/m 16,1 km/h (3 Bft) 100,00 %
11.03.2019 22:06 4,6 C 3,3 C 3,3 C 82 % 1022,6 hPa 0,0 l/m 0 min 0 min 0 W/m 9,7 km/h (2 Bft) 95,74 %
11.03.2019 22:08 4,6 C 3,3 C 3,3 C 82 % 1022,6 hPa 0,0 l/m 0 min 0 min 0 W/m 9,7 km/h (2 Bft) 95,74 %
11.03.2019 22:10 4,5 C 3,3 C 2,8 C 82 % 1022,7 hPa 0,0 l/m 0 min 0 min 0 W/m 6,4 km/h (2 Bft) 97,83 %
11.03.2019 22:12 4,5 C 3,3 C 2,8 C 82 % 1022,7 hPa 0,0 l/m 0 min 0 min 0 W/m 9,7 km/h (2 Bft) 95,74 %
11.03.2019 22:14 4,4 C 3,3 C 2,8 C 82 % 1022,7 hPa 0,0 l/m 0 min 0 min 0 W/m 9,7 km/h (2 Bft) 97,87 %
11.03.2019 22:16 4,4 C 3,3 C 2,8 C 82 % 1022,6 hPa 0,0 l/m 0 min 0 min 0 W/m 9,7 km/h (2 Bft) 97,87 %
11.03.2019 22:18 4,4 C 3,3 C 2,8 C 82 % 1022,7 hPa 0,0 l/m 0 min 0 min 0 W/m 6,4 km/h (2 Bft) 95,74 %
11.03.2019 22:20 4,3 C 3,3 C 2,8 C 82 % 1022,7 hPa 0,0 l/m 0 min 0 min 0 W/m 9,7 km/h (2 Bft) 95,74 %
11.03.2019 22:22 4,3 C 3,3 C 2,8 C 82 % 1022,7 hPa 0,0 l/m 0 min 0 min 0 W/m 6,4 km/h (2 Bft) 93,48 %
11.03.2019 22:24 4,3 C 2,8 C 2,8 C 82 % 1022,7 hPa 0,0 l/m 0 min 0 min 0 W/m 6,4 km/h (2 Bft) 95,74 %
11.03.2019 22:26 4,2 C 2,8 C 2,8 C 82 % 1022,7 hPa 0,0 l/m 0 min 0 min 0 W/m 6,4 km/h (2 Bft) 95,74 %
11.03.2019 22:28 4,2 C 2,8 C 2,8 C 82 % 1022,7 hPa 0,0 l/m 0 min 0 min 0 W/m 6,4 km/h (2 Bft) 95,74 %
11.03.2019 22:30 4,2 C 2,8 C 2,8 C 83 % 1022,7 hPa 0,0 l/m 0 min 0 min 0 W/m 6,4 km/h (2 Bft) 95,74 %
11.03.2019 22:32 4,1 C 2,8 C 2,2 C 83 % 1022,7 hPa 0,0 l/m 0 min 0 min 0 W/m 6,4 km/h (2 Bft) 95,74 %
11.03.2019 22:34 4,1 C 2,8 C 2,2 C 83 % 1022,7 hPa 0,0 l/m 0 min 0 min 0 W/m 3,2 km/h (1 Bft) 95,65 %
11.03.2019 22:36 4,1 C 2,8 C 2,2 C 83 % 1022,7 hPa 0,0 l/m 0 min 0 min 0 W/m 6,4 km/h (2 Bft) 93,62 %
11.03.2019 22:38 4,0 C 2,8 C 2,2 C 83 % 1022,7 hPa 0,0 l/m 0 min 0 min 0 W/m 6,4 km/h (2 Bft) 91,49 %
11.03.2019 22:40 4,0 C 2,8 C 2,2 C 83 % 1022,8 hPa 0,0 l/m 0 min 0 min 0 W/m 9,7 km/h (2 Bft) 93,62 %
11.03.2019 22:42 3,9 C 2,8 C 2,2 C 83 % 1022,8 hPa 0,0 l/m 0 min 0 min 0 W/m 12,9 km/h (3 Bft) 95,74 %
11.03.2019 22:44 3,9 C 2,8 C 2,2 C 83 % 1022,7 hPa 0,0 l/m 0 min 0 min 0 W/m 3,2 km/h (1 Bft) 93,62 %
11.03.2019 22:46 3,9 C 2,8 C 2,2 C 83 % 1022,7 hPa 0,0 l/m 0 min 0 min 0 W/m 6,4 km/h (2 Bft) 93,48 %
11.03.2019 22:48 3,9 C 2,8 C 2,2 C 83 % 1022,8 hPa 0,0 l/m 0 min 0 min 0 W/m 6,4 km/h (2 Bft) 93,62 %
11.03.2019 22:50 3,8 C 2,8 C 2,2 C 83 % 1022,8 hPa 0,0 l/m 0 min 0 min 0 W/m 9,7 km/h (2 Bft) 93,62 %
11.03.2019 22:52 3,8 C 2,8 C 2,2 C 83 % 1022,8 hPa 0,0 l/m 0 min 0 min 0 W/m 6,4 km/h (2 Bft) 93,62 %
11.03.2019 22:54 3,8 C 2,8 C 2,2 C 83 % 1022,8 hPa 0,0 l/m 0 min 0 min 0 W/m 6,4 km/h (2 Bft) 91,49 %
11.03.2019 22:56 3,8 C 2,8 C 2,2 C 83 % 1022,8 hPa 0,0 l/m 0 min 0 min 0 W/m 6,4 km/h (2 Bft) 93,62 %
11.03.2019 22:58 3,7 C 2,8 C 2,2 C 84 % 1022,8 hPa 0,0 l/m 0 min 0 min 0 W/m 6,4 km/h (2 Bft) 93,48 %
11.03.2019 23:00 3,7 C 2,8 C 2,2 C 84 % 1022,9 hPa 0,0 l/m 0 min 0 min 0 W/m 6,4 km/h (2 Bft) 91,49 %
11.03.2019 23:02 3,7 C 2,8 C 2,2 C 84 % 1022,8 hPa 0,0 l/m 0 min 0 min 0 W/m 6,4 km/h (2 Bft) 91,49 %
11.03.2019 23:04 3,7 C 2,8 C 2,2 C 84 % 1022,8 hPa 0,0 l/m 0 min 0 min 0 W/m 3,2 km/h (1 Bft) 93,62 %
11.03.2019 23:06 3,7 C 2,8 C 2,2 C 84 % 1022,8 hPa 0,0 l/m 0 min 0 min 0 W/m 6,4 km/h (2 Bft) 89,36 %
11.03.2019 23:08 3,7 C 2,8 C 2,2 C 84 % 1022,8 hPa 0,0 l/m 0 min 0 min 0 W/m 6,4 km/h (2 Bft) 93,48 %
11.03.2019 23:10 3,6 C 2,8 C 2,2 C 84 % 1022,8 hPa 0,0 l/m 0 min 0 min 0 W/m 6,4 km/h (2 Bft) 93,62 %
11.03.2019 23:12 3,6 C 2,8 C 2,2 C 84 % 1022,8 hPa 0,0 l/m 0 min 0 min 0 W/m 9,7 km/h (2 Bft) 95,74 %
11.03.2019 23:14 3,6 C 2,8 C 2,2 C 84 % 1022,8 hPa 0,0 l/m 0 min 0 min 0 W/m 6,4 km/h (2 Bft) 95,74 %
11.03.2019 23:16 3,6 C 2,8 C 2,2 C 84 % 1022,8 hPa 0,0 l/m 0 min 0 min 0 W/m 12,9 km/h (3 Bft) 93,62 %
11.03.2019 23:18 3,6 C 2,8 C 2,2 C 84 % 1022,8 hPa 0,0 l/m 0 min 0 min 0 W/m 6,4 km/h (2 Bft) 97,87 %
11.03.2019 23:20 3,6 C 2,8 C 2,2 C 84 % 1022,8 hPa 0,0 l/m 0 min 0 min 0 W/m 6,4 km/h (2 Bft) 97,83 %
11.03.2019 23:22 3,6 C 2,8 C 2,2 C 84 % 1022,8 hPa 0,0 l/m 0 min 0 min 0 W/m 6,4 km/h (2 Bft) 97,87 %
11.03.2019 23:24 3,6 C 2,8 C 2,2 C 85 % 1022,9 hPa 0,0 l/m 0 min 0 min 0 W/m 6,4 km/h (2 Bft) 97,87 %
11.03.2019 23:26 3,5 C 2,8 C 2,2 C 85 % 1023,0 hPa 0,0 l/m 0 min 0 min 0 W/m 3,2 km/h (1 Bft) 100,00 %
11.03.2019 23:28 3,5 C 2,8 C 2,2 C 85 % 1023,0 hPa 0,0 l/m 0 min 0 min 0 W/m 9,7 km/h (2 Bft) 100,00 %
11.03.2019 23:30 3,5 C 2,8 C 2,2 C 85 % 1023,0 hPa 0,0 l/m 0 min 0 min 0 W/m 6,4 km/h (2 Bft) 97,87 %
11.03.2019 23:32 3,5 C 2,8 C 2,2 C 85 % 1023,0 hPa 0,0 l/m 0 min 0 min 0 W/m 6,4 km/h (2 Bft) 97,83 %
11.03.2019 23:34 3,4 C 2,8 C 2,2 C 85 % 1023,0 hPa 0,0 l/m 0 min 0 min 0 W/m 6,4 km/h (2 Bft) 100,00 %
11.03.2019 23:36 3,4 C 2,8 C 2,2 C 85 % 1023,0 hPa 0,0 l/m 0 min 0 min 0 W/m 6,4 km/h (2 Bft) 100,00 %
11.03.2019 23:38 3,4 C 2,8 C 2,2 C 85 % 1023,1 hPa 0,0 l/m 0 min 0 min 0 W/m 9,7 km/h (2 Bft) 100,00 %
11.03.2019 23:40 3,4 C 2,8 C 2,2 C 85 % 1023,1 hPa 0,0 l/m 0 min 0 min 0 W/m 6,4 km/h (2 Bft) 97,87 %
11.03.2019 23:42 3,4 C 2,8 C 2,2 C 85 % 1023,1 hPa 0,0 l/m 0 min 0 min 0 W/m 6,4 km/h (2 Bft) 100,00 %
11.03.2019 23:44 3,4 C 2,8 C 2,2 C 85 % 1023,2 hPa 0,0 l/m 0 min 0 min 0 W/m 9,7 km/h (2 Bft) 100,00 %
11.03.2019 23:46 3,4 C 2,8 C 2,2 C 85 % 1023,2 hPa 0,0 l/m 0 min 0 min 0 W/m 9,7 km/h (2 Bft) 100,00 %
11.03.2019 23:48 3,4 C 2,8 C 2,2 C 85 % 1023,1 hPa 0,0 l/m 0 min 0 min 0 W/m 6,4 km/h (2 Bft) 97,87 %
11.03.2019 23:50 3,4 C 2,8 C 2,2 C 85 % 1023,2 hPa 0,0 l/m 0 min 0 min 0 W/m 6,4 km/h (2 Bft) 100,00 %
11.03.2019 23:52 3,3 C 2,8 C 2,2 C 85 % 1023,1 hPa 0,0 l/m 0 min 0 min 0 W/m 6,4 km/h (2 Bft) 100,00 %
11.03.2019 23:54 3,3 C 2,8 C 2,2 C 85 % 1023,1 hPa 0,0 l/m 0 min 0 min 0 W/m 6,4 km/h (2 Bft) 100,00 %
11.03.2019 23:56 3,3 C 2,8 C 2,2 C 85 % 1023,2 hPa 0,0 l/m 0 min 0 min 0 W/m 6,4 km/h (2 Bft) 100,00 %
11.03.2019 23:58 3,3 C 2,8 C 2,2 C 86 % 1023,2 hPa 0,0 l/m 0 min 0 min 0 W/m 6,4 km/h (2 Bft) 95,74 %
_ Min-Zeit 07:54 07:26 07:50 14:36 01:18 - - - - 00:22 07:48
Minimum _ 1,7 C 0,6 C 0,0 C 70 % 1010,8 hPa - - - - 3,2 km/h (1 Bft) 73,91 %
_ Max-Zeit 13:28 12:20 13:16 08:18 23:44 07:22 12:07 00:08 12:20 16:58 00:10
Maximum _ 8,6 C 13,9 C 13,3 C 94 % 1023,2 hPa 0,2 l/m 3 min 4 min 791 W/m 70,8 km/h
N-NW (8 Bft)
100,00 %
Durchschnitt _ 4,9 C 4,8 C 4,0 C 83 % 1015,6 hPa #0,8 l/m #4:14 h #3:48 h 209 W/m 21,9 km/h (4 Bft) 97,00 %
© 2019 W. Hausmann